Wetterdaten: Samstag, 07.10.2017
Datum Zeit Temp. Aussen Temp. o. S. +5cm Feuchte Auss BlattFeu 1 Luftdruck Regen Sonnenschein Regendauer Solar Windben Empfang
07.10.2017 00:00 9,6 C 9,4 C 8,3 C 94 % 0 lf 1023,2 hPa 0,0 l/m 0 min 0 min 0 W/m 14,6 km/h (3 Bft) 95,92 %
07.10.2017 00:02 9,6 C 9,4 C 8,3 C 94 % 0 lf 1023,2 hPa 0,0 l/m 0 min 0 min 0 W/m 12,6 km/h (3 Bft) 90,24 %
07.10.2017 00:04 9,6 C 9,4 C 8,9 C 94 % 0 lf 1023,2 hPa 0,0 l/m 0 min 0 min 1 W/m 14,6 km/h (3 Bft) 95,74 %
07.10.2017 00:07 9,6 C 9,4 C 8,9 C 94 % 0 lf 1023,2 hPa 0,0 l/m 0 min 0 min 5 W/m 12,6 km/h (3 Bft) 95,71 %
07.10.2017 00:08 9,6 C 9,4 C 8,9 C 94 % 0 lf 1023,2 hPa 0,0 l/m 0 min 0 min 5 W/m 10,5 km/h (2 Bft) 95,83 %
07.10.2017 00:10 9,6 C 9,4 C 8,9 C 94 % 0 lf 1023,2 hPa 0,0 l/m 0 min 0 min 5 W/m 14,6 km/h (3 Bft) 93,62 %
07.10.2017 00:12 9,6 C 9,4 C 8,9 C 94 % 0 lf 1023,1 hPa 0,0 l/m 0 min 0 min 5 W/m 10,5 km/h (2 Bft) 93,48 %
07.10.2017 00:14 9,7 C 9,4 C 8,9 C 94 % 0 lf 1023,1 hPa 0,0 l/m 0 min 0 min 5 W/m 8,4 km/h (2 Bft) 97,87 %
07.10.2017 00:16 9,7 C 9,4 C 8,9 C 94 % 0 lf 1023,1 hPa 0,0 l/m 0 min 0 min 5 W/m 6,3 km/h (2 Bft) 95,74 %
07.10.2017 00:18 9,7 C 9,4 C 8,9 C 94 % 0 lf 1023,1 hPa 0,0 l/m 0 min 0 min 5 W/m 12,6 km/h (3 Bft) 91,49 %
07.10.2017 00:20 9,7 C 9,4 C 8,9 C 94 % 0 lf 1023,1 hPa 0,0 l/m 0 min 0 min 5 W/m 10,5 km/h (2 Bft) 95,74 %
07.10.2017 00:22 9,7 C 9,4 C 8,9 C 94 % 0 lf 1023,1 hPa 0,0 l/m 0 min 0 min 5 W/m 14,6 km/h (3 Bft) 97,87 %
07.10.2017 00:24 9,7 C 9,4 C 8,9 C 94 % 0 lf 1023,1 hPa 0,0 l/m 0 min 0 min 5 W/m 12,6 km/h (3 Bft) 95,65 %
07.10.2017 00:26 9,7 C 9,4 C 8,9 C 94 % 0 lf 1023,2 hPa 0,0 l/m 0 min 0 min 5 W/m 10,5 km/h (2 Bft) 98,00 %
07.10.2017 00:28 9,7 C 9,4 C 8,9 C 94 % 0 lf 1023,2 hPa 0,0 l/m 0 min 0 min 5 W/m 10,5 km/h (2 Bft) 91,49 %
07.10.2017 00:30 9,7 C 9,4 C 8,9 C 94 % 0 lf 1023,2 hPa 0,0 l/m 0 min 0 min 5 W/m 8,4 km/h (2 Bft) 94,29 %
07.10.2017 00:32 9,7 C 9,4 C 8,9 C 94 % 0 lf 1023,1 hPa 0,0 l/m 0 min 0 min 5 W/m 14,6 km/h (3 Bft) 93,62 %
07.10.2017 00:34 9,8 C 10,0 C 8,9 C 94 % 0 lf 1023,1 hPa 0,0 l/m 0 min 0 min 5 W/m 10,5 km/h (2 Bft) 93,62 %
07.10.2017 00:36 9,8 C 10,0 C 8,9 C 94 % 0 lf 1023,1 hPa 0,0 l/m 0 min 0 min 5 W/m 8,4 km/h (2 Bft) 93,62 %
07.10.2017 00:38 9,8 C 10,0 C 8,9 C 94 % 0 lf 1023,1 hPa 0,0 l/m 0 min 0 min 5 W/m 10,5 km/h (2 Bft) 95,65 %
07.10.2017 00:40 9,8 C 10,0 C 8,9 C 94 % 0 lf 1023,1 hPa 0,0 l/m 0 min 0 min 5 W/m 10,5 km/h (2 Bft) 93,62 %
07.10.2017 00:42 9,8 C 10,0 C 8,9 C 94 % 0 lf 1023,1 hPa 0,0 l/m 0 min 0 min 5 W/m 12,6 km/h (3 Bft) 93,62 %
07.10.2017 00:44 9,8 C 10,0 C 8,9 C 94 % 0 lf 1023,1 hPa 0,0 l/m 0 min 0 min 5 W/m 12,6 km/h (3 Bft) 95,74 %
07.10.2017 00:46 9,8 C 10,0 C 8,9 C 94 % 0 lf 1023,1 hPa 0,0 l/m 0 min 0 min 5 W/m 16,7 km/h (3 Bft) 95,74 %
07.10.2017 00:48 9,8 C 10,0 C 8,9 C 94 % 0 lf 1023,1 hPa 0,0 l/m 0 min 0 min 5 W/m 12,6 km/h (3 Bft) 95,74 %
07.10.2017 00:50 9,9 C 10,0 C 8,9 C 94 % 0 lf 1023,1 hPa 0,0 l/m 0 min 0 min 5 W/m 10,5 km/h (2 Bft) 94,83 %
07.10.2017 00:52 9,9 C 10,0 C 8,9 C 94 % 0 lf 1023,0 hPa 0,0 l/m 0 min 0 min 5 W/m 12,6 km/h (3 Bft) 91,43 %
07.10.2017 00:54 9,9 C 10,0 C 8,9 C 94 % 0 lf 1023,0 hPa 0,0 l/m 0 min 0 min 5 W/m 12,6 km/h (3 Bft) 97,87 %
07.10.2017 00:56 9,9 C 10,0 C 8,9 C 94 % 0 lf 1023,0 hPa 0,0 l/m 0 min 0 min 5 W/m 6,3 km/h (2 Bft) 97,87 %
07.10.2017 00:58 9,9 C 10,0 C 8,9 C 94 % 0 lf 1022,9 hPa 0,0 l/m 0 min 0 min 5 W/m 12,6 km/h (3 Bft) 95,74 %
07.10.2017 01:00 9,9 C 10,0 C 8,9 C 94 % 0 lf 1023,0 hPa 0,0 l/m 0 min 0 min 5 W/m 12,6 km/h (3 Bft) 95,74 %
07.10.2017 01:02 9,9 C 10,0 C 8,9 C 94 % 0 lf 1023,0 hPa 0,0 l/m 0 min 0 min 5 W/m 16,7 km/h (3 Bft) 97,83 %
07.10.2017 01:04 9,9 C 10,0 C 8,9 C 94 % 0 lf 1023,0 hPa 0,0 l/m 0 min 0 min 5 W/m 12,6 km/h (3 Bft) 97,87 %
07.10.2017 01:06 9,9 C 10,0 C 8,9 C 94 % 0 lf 1023,0 hPa 0,0 l/m 0 min 0 min 5 W/m 14,6 km/h (3 Bft) 97,87 %
07.10.2017 01:08 9,9 C 10,0 C 8,9 C 94 % 0 lf 1023,0 hPa 0,0 l/m 0 min 0 min 5 W/m 18,8 km/h (3 Bft) 97,87 %
07.10.2017 01:10 9,9 C 10,0 C 8,9 C 94 % 0 lf 1023,0 hPa 0,0 l/m 0 min 0 min 5 W/m 16,7 km/h (3 Bft) 97,87 %
07.10.2017 01:12 9,9 C 10,0 C 8,9 C 94 % 0 lf 1023,0 hPa 0,0 l/m 0 min 0 min 5 W/m 14,6 km/h (3 Bft) 95,74 %
07.10.2017 01:14 9,9 C 10,0 C 8,9 C 94 % 0 lf 1023,0 hPa 0,0 l/m 0 min 0 min 5 W/m 16,7 km/h (3 Bft) 97,83 %
07.10.2017 01:16 9,9 C 10,0 C 8,9 C 94 % 0 lf 1023,0 hPa 0,0 l/m 0 min 0 min 5 W/m 10,5 km/h (2 Bft) 95,74 %
07.10.2017 01:18 9,9 C 10,0 C 8,9 C 94 % 0 lf 1023,0 hPa 0,0 l/m 0 min 0 min 5 W/m 14,6 km/h (3 Bft) 93,62 %
07.10.2017 01:20 9,9 C 10,0 C 8,9 C 94 % 0 lf 1023,0 hPa 0,0 l/m 0 min 0 min 5 W/m 14,6 km/h (3 Bft) 94,92 %
07.10.2017 01:22 9,9 C 10,0 C 8,9 C 94 % 0 lf 1023,0 hPa 0,0 l/m 0 min 0 min 5 W/m 10,5 km/h (2 Bft) 97,14 %
07.10.2017 01:24 9,9 C 10,0 C 8,9 C 94 % 0 lf 1023,0 hPa 0,0 l/m 0 min 0 min 5 W/m 14,6 km/h (3 Bft) 97,83 %
07.10.2017 01:26 9,9 C 9,4 C 8,3 C 94 % 0 lf 1023,0 hPa 0,0 l/m 0 min 0 min 5 W/m 14,6 km/h (3 Bft) 97,87 %
07.10.2017 01:28 9,9 C 9,4 C 8,3 C 94 % 0 lf 1023,0 hPa 0,0 l/m 0 min 0 min 5 W/m 10,5 km/h (2 Bft) 97,87 %
07.10.2017 01:30 9,9 C 9,4 C 8,3 C 94 % 0 lf 1023,0 hPa 0,0 l/m 0 min 0 min 5 W/m 12,6 km/h (3 Bft) 95,74 %
07.10.2017 01:32 9,9 C 9,4 C 8,3 C 94 % 0 lf 1023,0 hPa 0,0 l/m 0 min 0 min 5 W/m 10,5 km/h (2 Bft) 97,87 %
07.10.2017 01:34 9,9 C 9,4 C 8,3 C 94 % 0 lf 1023,0 hPa 0,0 l/m 0 min 0 min 5 W/m 14,6 km/h (3 Bft) 97,87 %
07.10.2017 01:36 9,9 C 9,4 C 8,9 C 94 % 0 lf 1023,0 hPa 0,0 l/m 0 min 0 min 5 W/m 14,6 km/h (3 Bft) 95,65 %
07.10.2017 01:38 9,9 C 9,4 C 8,9 C 94 % 0 lf 1023,0 hPa 0,0 l/m 0 min 0 min 5 W/m 16,7 km/h (3 Bft) 95,74 %
07.10.2017 01:40 9,9 C 9,4 C 8,9 C 94 % 0 lf 1023,0 hPa 0,0 l/m 0 min 0 min 5 W/m 16,7 km/h (3 Bft) 97,87 %
07.10.2017 01:42 9,9 C 9,4 C 8,9 C 94 % 0 lf 1023,0 hPa 0,0 l/m 0 min 0 min 5 W/m 12,6 km/h (3 Bft) 95,74 %
07.10.2017 01:44 9,9 C 10,0 C 8,9 C 94 % 0 lf 1023,1 hPa 0,0 l/m 0 min 0 min 5 W/m 14,6 km/h (3 Bft) 97,87 %
07.10.2017 01:46 9,9 C 10,0 C 8,9 C 94 % 0 lf 1023,0 hPa 0,0 l/m 0 min 0 min 5 W/m 10,5 km/h (2 Bft) 95,74 %
07.10.2017 01:48 9,9 C 10,0 C 8,9 C 94 % 0 lf 1023,0 hPa 0,0 l/m 0 min 0 min 5 W/m 12,6 km/h (3 Bft) 97,83 %
07.10.2017 01:50 9,9 C 10,0 C 8,9 C 94 % 0 lf 1023,0 hPa 0,0 l/m 0 min 0 min 5 W/m 10,5 km/h (2 Bft) 98,31 %
07.10.2017 01:52 9,9 C 10,0 C 8,9 C 94 % 0 lf 1023,0 hPa 0,0 l/m 0 min 0 min 5 W/m 16,7 km/h (3 Bft) 97,14 %
07.10.2017 01:54 9,9 C 10,0 C 8,9 C 94 % 0 lf 1023,0 hPa 0,0 l/m 0 min 0 min 5 W/m 10,5 km/h (2 Bft) 93,62 %
07.10.2017 01:56 9,9 C 10,0 C 8,9 C 94 % 0 lf 1023,0 hPa 0,0 l/m 0 min 0 min 5 W/m 14,6 km/h (3 Bft) 97,87 %
07.10.2017 01:58 9,9 C 10,0 C 8,9 C 94 % 0 lf 1022,9 hPa 0,0 l/m 0 min 0 min 5 W/m 16,7 km/h (3 Bft) 97,87 %
07.10.2017 02:00 9,9 C 10,0 C 8,9 C 94 % 0 lf 1022,9 hPa 0,0 l/m 0 min 0 min 5 W/m 12,6 km/h (3 Bft) 97,83 %
07.10.2017 02:02 9,9 C 10,0 C 8,9 C 94 % 4 lf 1022,9 hPa 0,0 l/m 0 min 2 min 5 W/m 10,5 km/h (2 Bft) 97,87 %
07.10.2017 02:04 9,9 C 10,0 C 8,9 C 94 % 7 lf 1022,9 hPa 0,0 l/m 0 min 2 min 5 W/m 14,6 km/h (3 Bft) 97,87 %
07.10.2017 02:06 9,9 C 10,0 C 8,9 C 94 % 5 lf 1022,9 hPa 0,0 l/m 0 min 0 min 5 W/m 12,6 km/h (3 Bft) 97,87 %
07.10.2017 02:08 9,9 C 10,0 C 8,9 C 94 % 4 lf 1022,9 hPa 0,0 l/m 0 min 0 min 5 W/m 14,6 km/h (3 Bft) 100,00 %
07.10.2017 02:10 9,9 C 10,0 C 8,9 C 94 % 3 lf 1022,9 hPa 0,0 l/m 0 min 0 min 5 W/m 12,6 km/h (3 Bft) 100,00 %
07.10.2017 02:12 10,0 C 10,0 C 8,9 C 94 % 6 lf 1022,9 hPa 0,0 l/m 0 min 0 min 5 W/m 14,6 km/h (3 Bft) 97,83 %
07.10.2017 02:14 10,0 C 9,4 C 8,9 C 94 % 14 lf 1022,8 hPa 0,0 l/m 0 min 2 min 5 W/m 12,6 km/h (3 Bft) 95,74 %
07.10.2017 02:16 10,0 C 9,4 C 8,9 C 94 % 14 lf 1022,8 hPa 0,0 l/m 0 min 0 min 5 W/m 10,5 km/h (2 Bft) 97,87 %
07.10.2017 02:18 10,0 C 9,4 C 8,3 C 94 % 14 lf 1022,9 hPa 0,0 l/m 0 min 0 min 5 W/m 12,6 km/h (3 Bft) 95,74 %
07.10.2017 02:20 10,0 C 9,4 C 8,3 C 94 % 14 lf 1022,8 hPa 0,0 l/m 0 min 0 min 5 W/m 6,3 km/h (2 Bft) 96,55 %
07.10.2017 02:22 10,0 C 9,4 C 8,3 C 94 % 13 lf 1022,8 hPa 0,0 l/m 0 min 0 min 5 W/m 12,6 km/h (3 Bft) 91,67 %
07.10.2017 02:24 10,0 C 9,4 C 8,3 C 94 % 13 lf 1022,8 hPa 0,0 l/m 0 min 0 min 5 W/m 10,5 km/h (2 Bft) 91,30 %
07.10.2017 02:26 10,0 C 9,4 C 8,3 C 94 % 12 lf 1022,9 hPa 0,0 l/m 0 min 0 min 5 W/m 8,4 km/h (2 Bft) 95,74 %
07.10.2017 02:28 10,0 C 9,4 C 8,3 C 94 % 12 lf 1022,8 hPa 0,0 l/m 0 min 0 min 5 W/m 10,5 km/h (2 Bft) 97,87 %
07.10.2017 02:30 10,0 C 9,4 C 8,3 C 94 % 11 lf 1022,9 hPa 0,0 l/m 0 min 0 min 5 W/m 10,5 km/h (2 Bft) 95,74 %
07.10.2017 02:32 10,0 C 9,4 C 8,9 C 94 % 10 lf 1022,9 hPa 0,0 l/m 0 min 0 min 5 W/m 12,6 km/h (3 Bft) 93,62 %
07.10.2017 02:34 10,0 C 9,4 C 8,9 C 94 % 10 lf 1022,9 hPa 0,0 l/m 0 min 0 min 5 W/m 10,5 km/h (2 Bft) 93,48 %
07.10.2017 02:36 10,0 C 10,0 C 8,9 C 94 % 9 lf 1022,9 hPa 0,0 l/m 0 min 0 min 5 W/m 10,5 km/h (2 Bft) 95,65 %
07.10.2017 02:38 10,0 C 10,0 C 8,9 C 94 % 7 lf 1022,8 hPa 0,0 l/m 0 min 0 min 5 W/m 8,4 km/h (2 Bft) 93,62 %
07.10.2017 02:40 10,0 C 10,0 C 8,9 C 94 % 6 lf 1022,8 hPa 0,0 l/m 0 min 0 min 5 W/m 10,5 km/h (2 Bft) 93,62 %
07.10.2017 02:42 10,0 C 10,0 C 8,9 C 94 % 4 lf 1022,8 hPa 0,0 l/m 0 min 0 min 5 W/m 8,4 km/h (2 Bft) 93,62 %
07.10.2017 02:44 10,0 C 10,0 C 8,9 C 94 % 4 lf 1022,8 hPa 0,0 l/m 0 min 0 min 5 W/m 12,6 km/h (3 Bft) 95,74 %
07.10.2017 02:46 10,0 C 10,0 C 8,9 C 94 % 3 lf 1022,8 hPa 0,0 l/m 0 min 0 min 5 W/m 10,5 km/h (2 Bft) 95,65 %
07.10.2017 02:48 10,0 C 10,0 C 8,3 C 94 % 2 lf 1022,7 hPa 0,0 l/m 0 min 0 min 5 W/m 10,5 km/h (2 Bft) 93,62 %
07.10.2017 02:50 10,0 C 10,0 C 8,3 C 94 % 2 lf 1022,7 hPa 0,0 l/m 0 min 0 min 5 W/m 12,6 km/h (3 Bft) 93,22 %
07.10.2017 02:52 10,0 C 10,0 C 8,3 C 94 % 1 lf 1022,7 hPa 0,0 l/m 0 min 0 min 5 W/m 10,5 km/h (2 Bft) 94,29 %
07.10.2017 02:54 10,0 C 10,0 C 8,3 C 94 % 0 lf 1022,6 hPa 0,0 l/m 0 min 0 min 5 W/m 8,4 km/h (2 Bft) 93,62 %
07.10.2017 02:56 10,0 C 10,0 C 8,3 C 94 % 0 lf 1022,7 hPa 0,0 l/m 0 min 0 min 5 W/m 8,4 km/h (2 Bft) 95,74 %
07.10.2017 02:58 10,0 C 9,4 C 8,3 C 94 % 0 lf 1022,6 hPa 0,0 l/m 0 min 0 min 5 W/m 8,4 km/h (2 Bft) 95,65 %
07.10.2017 03:00 10,0 C 10,0 C 8,3 C 94 % 0 lf 1022,5 hPa 0,0 l/m 0 min 0 min 5 W/m 10,5 km/h (2 Bft) 95,74 %
07.10.2017 03:02 10,0 C 9,4 C 8,3 C 94 % 0 lf 1022,5 hPa 0,0 l/m 0 min 0 min 5 W/m 10,5 km/h (2 Bft) 95,74 %
07.10.2017 03:04 10,0 C 9,4 C 8,3 C 94 % 0 lf 1022,5 hPa 0,0 l/m 0 min 0 min 5 W/m 8,4 km/h (2 Bft) 95,74 %
07.10.2017 03:06 10,0 C 9,4 C 8,3 C 94 % 0 lf 1022,4 hPa 0,0 l/m 0 min 0 min 5 W/m 10,5 km/h (2 Bft) 97,87 %
07.10.2017 03:08 10,0 C 9,4 C 8,3 C 94 % 0 lf 1022,4 hPa 0,0 l/m 0 min 0 min 5 W/m 10,5 km/h (2 Bft) 95,74 %
07.10.2017 03:10 9,9 C 9,4 C 8,3 C 94 % 0 lf 1022,3 hPa 0,0 l/m 0 min 0 min 5 W/m 8,4 km/h (2 Bft) 95,65 %
07.10.2017 03:12 9,9 C 9,4 C 8,3 C 94 % 0 lf 1022,3 hPa 0,0 l/m 0 min 0 min 5 W/m 8,4 km/h (2 Bft) 97,87 %
07.10.2017 03:14 9,9 C 9,4 C 8,3 C 94 % 0 lf 1022,2 hPa 0,0 l/m 0 min 0 min 5 W/m 6,3 km/h (2 Bft) 97,87 %
07.10.2017 03:16 9,9 C 9,4 C 8,3 C 94 % 0 lf 1022,2 hPa 0,0 l/m 0 min 0 min 5 W/m 6,3 km/h (2 Bft) 95,74 %
07.10.2017 03:18 9,9 C 9,4 C 7,8 C 94 % 0 lf 1022,2 hPa 0,0 l/m 0 min 0 min 5 W/m 8,4 km/h (2 Bft) 97,87 %
07.10.2017 03:20 9,9 C 9,4 C 7,8 C 94 % 0 lf 1022,1 hPa 0,0 l/m 0 min 0 min 5 W/m 6,3 km/h (2 Bft) 96,55 %
07.10.2017 03:22 9,9 C 9,4 C 7,8 C 94 % 0 lf 1022,1 hPa 0,0 l/m 0 min 0 min 5 W/m 8,4 km/h (2 Bft) 97,14 %
07.10.2017 03:24 9,9 C 9,4 C 7,8 C 94 % 0 lf 1022,0 hPa 0,0 l/m 0 min 0 min 5 W/m 8,4 km/h (2 Bft) 97,87 %
07.10.2017 03:26 9,8 C 9,4 C 7,8 C 94 % 0 lf 1022,0 hPa 0,0 l/m 0 min 0 min 5 W/m 8,4 km/h (2 Bft) 97,87 %
07.10.2017 03:28 9,8 C 9,4 C 7,8 C 94 % 0 lf 1022,0 hPa 0,0 l/m 0 min 0 min 5 W/m 10,5 km/h (2 Bft) 97,87 %
07.10.2017 03:30 9,8 C 9,4 C 8,3 C 94 % 0 lf 1021,9 hPa 0,0 l/m 0 min 0 min 5 W/m 10,5 km/h (2 Bft) 97,87 %
07.10.2017 03:32 9,8 C 9,4 C 8,3 C 94 % 0 lf 1022,0 hPa 0,0 l/m 0 min 0 min 5 W/m 8,4 km/h (2 Bft) 93,62 %
07.10.2017 03:34 9,8 C 9,4 C 8,3 C 94 % 0 lf 1021,9 hPa 0,0 l/m 0 min 0 min 5 W/m 10,5 km/h (2 Bft) 97,83 %
07.10.2017 03:36 9,8 C 9,4 C 8,3 C 94 % 0 lf 1021,9 hPa 0,0 l/m 0 min 0 min 5 W/m 8,4 km/h (2 Bft) 100,00 %
07.10.2017 03:38 9,8 C 9,4 C 8,3 C 94 % 0 lf 1021,8 hPa 0,0 l/m 0 min 0 min 5 W/m 10,5 km/h (2 Bft) 100,00 %
07.10.2017 03:40 9,8 C 9,4 C 7,8 C 94 % 0 lf 1021,8 hPa 0,0 l/m 0 min 0 min 5 W/m 10,5 km/h (2 Bft) 100,00 %
07.10.2017 03:42 9,7 C 9,4 C 7,8 C 94 % 0 lf 1021,8 hPa 0,0 l/m 0 min 0 min 5 W/m 10,5 km/h (2 Bft) 100,00 %
07.10.2017 03:44 9,7 C 9,4 C 7,8 C 94 % 0 lf 1021,9 hPa 0,0 l/m 0 min 0 min 5 W/m 14,6 km/h (3 Bft) 100,00 %
07.10.2017 03:46 9,7 C 9,4 C 7,8 C 94 % 0 lf 1021,8 hPa 0,0 l/m 0 min 0 min 5 W/m 10,5 km/h (2 Bft) 100,00 %
07.10.2017 03:48 9,7 C 9,4 C 7,8 C 94 % 0 lf 1021,9 hPa 0,0 l/m 0 min 0 min 5 W/m 8,4 km/h (2 Bft) 97,87 %
07.10.2017 03:50 9,7 C 9,4 C 8,3 C 94 % 0 lf 1021,9 hPa 0,0 l/m 0 min 0 min 5 W/m 10,5 km/h (2 Bft) 100,00 %
07.10.2017 03:52 9,7 C 9,4 C 8,3 C 94 % 0 lf 1021,9 hPa 0,0 l/m 0 min 0 min 5 W/m 14,6 km/h (3 Bft) 100,00 %
07.10.2017 03:54 9,7 C 9,4 C 8,3 C 94 % 0 lf 1021,8 hPa 0,0 l/m 0 min 0 min 5 W/m 12,6 km/h (3 Bft) 100,00 %
07.10.2017 03:56 9,7 C 9,4 C 8,3 C 94 % 0 lf 1021,8 hPa 0,0 l/m 0 min 0 min 5 W/m 10,5 km/h (2 Bft) 97,83 %
07.10.2017 03:58 9,7 C 9,4 C 8,3 C 94 % 0 lf 1021,8 hPa 0,0 l/m 0 min 0 min 5 W/m 10,5 km/h (2 Bft) 100,00 %
07.10.2017 04:00 9,7 C 9,4 C 8,3 C 94 % 0 lf 1021,8 hPa 0,0 l/m 0 min 0 min 5 W/m 12,6 km/h (3 Bft) 100,00 %
07.10.2017 04:05 9,7 C 9,4 C 8,3 C 94 % 0 lf 1021,9 hPa 0,0 l/m 0 min 0 min 5 W/m 14,6 km/h (3 Bft) 100,00 %
07.10.2017 04:06 9,7 C 9,4 C 8,3 C 94 % 0 lf 1021,9 hPa 0,0 l/m 0 min 0 min 5 W/m 14,6 km/h (3 Bft) 100,00 %
07.10.2017 04:08 9,7 C 9,4 C 8,3 C 94 % 0 lf 1021,8 hPa 0,0 l/m 0 min 0 min 5 W/m 14,6 km/h (3 Bft) 100,00 %
07.10.2017 04:10 9,7 C 9,4 C 8,3 C 94 % 0 lf 1021,8 hPa 0,0 l/m 0 min 0 min 5 W/m 8,4 km/h (2 Bft) 100,00 %
07.10.2017 04:12 9,7 C 9,4 C 8,3 C 94 % 0 lf 1021,8 hPa 0,0 l/m 0 min 0 min 5 W/m 14,6 km/h (3 Bft) 95,74 %
07.10.2017 04:14 9,7 C 9,4 C 8,3 C 94 % 0 lf 1021,8 hPa 0,0 l/m 0 min 0 min 5 W/m 16,7 km/h (3 Bft) 95,74 %
07.10.2017 04:16 9,7 C 9,4 C 8,3 C 94 % 0 lf 1021,9 hPa 0,0 l/m 0 min 0 min 5 W/m 14,6 km/h (3 Bft) 97,87 %
07.10.2017 04:18 9,7 C 9,4 C 8,3 C 94 % 0 lf 1021,8 hPa 0,0 l/m 0 min 0 min 5 W/m 14,6 km/h (3 Bft) 100,00 %
07.10.2017 04:20 9,7 C 9,4 C 8,3 C 94 % 0 lf 1021,8 hPa 0,0 l/m 0 min 0 min 5 W/m 18,8 km/h (3 Bft) 98,28 %
07.10.2017 04:22 9,7 C 9,4 C 8,3 C 94 % 0 lf 1021,8 hPa 0,0 l/m 0 min 0 min 5 W/m 18,8 km/h (3 Bft) 97,14 %
07.10.2017 04:24 9,7 C 9,4 C 8,3 C 94 % 0 lf 1021,8 hPa 0,0 l/m 0 min 0 min 5 W/m 14,6 km/h (3 Bft) 95,74 %
07.10.2017 04:26 9,7 C 9,4 C 8,3 C 94 % 0 lf 1021,8 hPa 0,0 l/m 0 min 0 min 5 W/m 14,6 km/h (3 Bft) 97,87 %
07.10.2017 04:28 9,7 C 9,4 C 8,3 C 94 % 0 lf 1021,8 hPa 0,0 l/m 0 min 0 min 5 W/m 16,7 km/h (3 Bft) 93,62 %
07.10.2017 04:30 9,7 C 9,4 C 8,3 C 94 % 0 lf 1021,8 hPa 0,0 l/m 0 min 0 min 5 W/m 12,6 km/h (3 Bft) 97,87 %
07.10.2017 04:32 9,7 C 9,4 C 8,3 C 94 % 0 lf 1021,7 hPa 0,0 l/m 0 min 0 min 5 W/m 10,5 km/h (2 Bft) 95,65 %
07.10.2017 04:34 9,7 C 9,4 C 8,3 C 94 % 0 lf 1021,7 hPa 0,0 l/m 0 min 0 min 5 W/m 12,6 km/h (3 Bft) 97,87 %
07.10.2017 04:36 9,7 C 9,4 C 8,3 C 94 % 0 lf 1021,7 hPa 0,0 l/m 0 min 0 min 5 W/m 10,5 km/h (2 Bft) 97,87 %
07.10.2017 04:38 9,7 C 9,4 C 8,3 C 94 % 0 lf 1021,6 hPa 0,0 l/m 0 min 0 min 5 W/m 18,8 km/h (3 Bft) 97,87 %
07.10.2017 04:40 9,7 C 9,4 C 8,3 C 94 % 0 lf 1021,6 hPa 0,0 l/m 0 min 0 min 5 W/m 16,7 km/h (3 Bft) 97,87 %
07.10.2017 04:42 9,7 C 9,4 C 8,3 C 94 % 0 lf 1021,6 hPa 0,0 l/m 0 min 0 min 5 W/m 12,6 km/h (3 Bft) 97,87 %
07.10.2017 04:44 9,7 C 9,4 C 8,3 C 94 % 0 lf 1021,6 hPa 0,0 l/m 0 min 0 min 5 W/m 20,9 km/h (4 Bft) 95,65 %
07.10.2017 04:46 9,7 C 9,4 C 8,3 C 93 % 0 lf 1021,6 hPa 0,0 l/m 0 min 0 min 5 W/m 16,7 km/h (3 Bft) 100,00 %
07.10.2017 04:48 9,7 C 9,4 C 8,3 C 93 % 0 lf 1021,6 hPa 0,0 l/m 0 min 0 min 5 W/m 10,5 km/h (2 Bft) 100,00 %
07.10.2017 04:50 9,7 C 9,4 C 8,3 C 93 % 0 lf 1021,6 hPa 0,0 l/m 0 min 0 min 5 W/m 12,6 km/h (3 Bft) 100,00 %
07.10.2017 04:52 9,7 C 9,4 C 8,3 C 93 % 0 lf 1021,6 hPa 0,0 l/m 0 min 0 min 5 W/m 12,6 km/h (3 Bft) 97,14 %
07.10.2017 04:54 9,7 C 9,4 C 8,3 C 93 % 0 lf 1021,6 hPa 0,0 l/m 0 min 0 min 5 W/m 10,5 km/h (2 Bft) 97,87 %
07.10.2017 04:56 9,7 C 9,4 C 8,3 C 93 % 0 lf 1021,5 hPa 0,0 l/m 0 min 0 min 5 W/m 8,4 km/h (2 Bft) 100,00 %
07.10.2017 04:58 9,7 C 9,4 C 8,3 C 93 % 0 lf 1021,4 hPa 0,0 l/m 0 min 0 min 5 W/m 14,6 km/h (3 Bft) 97,87 %
07.10.2017 05:00 9,6 C 9,4 C 8,3 C 93 % 0 lf 1021,4 hPa 0,0 l/m 0 min 0 min 5 W/m 8,4 km/h (2 Bft) 93,62 %
07.10.2017 05:02 9,6 C 9,4 C 8,3 C 93 % 0 lf 1021,4 hPa 0,0 l/m 0 min 0 min 5 W/m 16,7 km/h (3 Bft) 97,87 %
07.10.2017 05:04 9,6 C 9,4 C 8,3 C 93 % 0 lf 1021,4 hPa 0,0 l/m 0 min 0 min 5 W/m 14,6 km/h (3 Bft) 97,87 %
07.10.2017 05:06 9,6 C 9,4 C 8,3 C 93 % 0 lf 1021,3 hPa 0,0 l/m 0 min 0 min 5 W/m 18,8 km/h (3 Bft) 95,65 %
07.10.2017 05:08 9,6 C 9,4 C 8,3 C 93 % 0 lf 1021,3 hPa 0,0 l/m 0 min 0 min 5 W/m 18,8 km/h (3 Bft) 97,87 %
07.10.2017 05:10 9,6 C 9,4 C 8,3 C 93 % 0 lf 1021,2 hPa 0,0 l/m 0 min 0 min 5 W/m 12,6 km/h (3 Bft) 97,87 %
07.10.2017 05:12 9,6 C 9,4 C 8,3 C 93 % 0 lf 1021,3 hPa 0,0 l/m 0 min 0 min 5 W/m 12,6 km/h (3 Bft) 93,62 %
07.10.2017 05:14 9,6 C 9,4 C 8,3 C 93 % 0 lf 1021,2 hPa 0,0 l/m 0 min 0 min 5 W/m 10,5 km/h (2 Bft) 95,74 %
07.10.2017 05:16 9,6 C 9,4 C 8,3 C 93 % 0 lf 1021,3 hPa 0,0 l/m 0 min 0 min 5 W/m 10,5 km/h (2 Bft) 95,74 %
07.10.2017 05:18 9,6 C 9,4 C 8,3 C 93 % 0 lf 1021,3 hPa 0,0 l/m 0 min 0 min 5 W/m 14,6 km/h (3 Bft) 93,48 %
07.10.2017 05:20 9,6 C 9,4 C 8,3 C 93 % 0 lf 1021,2 hPa 0,0 l/m 0 min 0 min 5 W/m 10,5 km/h (2 Bft) 96,61 %
07.10.2017 05:22 9,6 C 9,4 C 8,3 C 93 % 0 lf 1021,2 hPa 0,0 l/m 0 min 0 min 5 W/m 12,6 km/h (3 Bft) 91,18 %
07.10.2017 05:24 9,6 C 9,4 C 8,3 C 93 % 0 lf 1021,2 hPa 0,0 l/m 0 min 0 min 5 W/m 10,5 km/h (2 Bft) 93,62 %
07.10.2017 05:26 9,6 C 9,4 C 8,3 C 93 % 0 lf 1021,2 hPa 0,0 l/m 0 min 0 min 5 W/m 12,6 km/h (3 Bft) 93,62 %
07.10.2017 05:28 9,5 C 9,4 C 8,3 C 93 % 0 lf 1021,3 hPa 0,0 l/m 0 min 0 min 5 W/m 10,5 km/h (2 Bft) 95,74 %
07.10.2017 05:30 9,5 C 9,4 C 8,3 C 92 % 0 lf 1021,2 hPa 0,0 l/m 0 min 0 min 5 W/m 12,6 km/h (3 Bft) 93,48 %
07.10.2017 05:32 9,5 C 9,4 C 8,3 C 92 % 0 lf 1021,2 hPa 0,0 l/m 0 min 0 min 5 W/m 10,5 km/h (2 Bft) 95,74 %
07.10.2017 05:34 9,5 C 9,4 C 8,3 C 92 % 0 lf 1021,2 hPa 0,0 l/m 0 min 0 min 5 W/m 12,6 km/h (3 Bft) 91,49 %
07.10.2017 05:36 9,5 C 9,4 C 8,3 C 92 % 0 lf 1021,2 hPa 0,0 l/m 0 min 0 min 5 W/m 14,6 km/h (3 Bft) 91,49 %
07.10.2017 05:38 9,5 C 9,4 C 8,3 C 92 % 0 lf 1021,1 hPa 0,0 l/m 0 min 0 min 5 W/m 8,4 km/h (2 Bft) 91,49 %
07.10.2017 05:40 9,4 C 9,4 C 7,8 C 92 % 0 lf 1021,1 hPa 0,0 l/m 0 min 0 min 5 W/m 10,5 km/h (2 Bft) 93,62 %
07.10.2017 05:42 9,4 C 9,4 C 7,8 C 92 % 0 lf 1021,1 hPa 0,0 l/m 0 min 0 min 5 W/m 8,4 km/h (2 Bft) 93,48 %
07.10.2017 05:44 9,4 C 9,4 C 7,8 C 92 % 0 lf 1021,1 hPa 0,0 l/m 0 min 0 min 5 W/m 14,6 km/h (3 Bft) 89,36 %
07.10.2017 05:46 9,4 C 9,4 C 7,8 C 92 % 0 lf 1021,1 hPa 0,0 l/m 0 min 0 min 5 W/m 14,6 km/h (3 Bft) 97,87 %
07.10.2017 05:48 9,4 C 8,9 C 7,8 C 92 % 0 lf 1021,0 hPa 0,0 l/m 0 min 0 min 5 W/m 12,6 km/h (3 Bft) 91,49 %
07.10.2017 05:50 9,4 C 8,9 C 7,8 C 92 % 0 lf 1021,0 hPa 0,0 l/m 0 min 0 min 5 W/m 12,6 km/h (3 Bft) 94,92 %
07.10.2017 05:52 9,4 C 9,4 C 7,8 C 92 % 0 lf 1021,0 hPa 0,0 l/m 0 min 0 min 5 W/m 20,9 km/h (4 Bft) 91,43 %
07.10.2017 05:54 9,4 C 8,9 C 7,8 C 91 % 0 lf 1020,9 hPa 0,0 l/m 0 min 0 min 5 W/m 16,7 km/h (3 Bft) 91,30 %
07.10.2017 05:56 9,4 C 9,4 C 7,8 C 91 % 0 lf 1021,0 hPa 0,0 l/m 0 min 0 min 5 W/m 14,6 km/h (3 Bft) 93,62 %
07.10.2017 05:58 9,4 C 8,9 C 7,8 C 91 % 0 lf 1020,9 hPa 0,0 l/m 0 min 0 min 5 W/m 12,6 km/h (3 Bft) 91,49 %
07.10.2017 06:00 9,4 C 9,4 C 7,8 C 91 % 0 lf 1020,9 hPa 0,0 l/m 0 min 0 min 5 W/m 16,7 km/h (3 Bft) 93,62 %
07.10.2017 06:02 9,4 C 8,9 C 7,8 C 91 % 0 lf 1020,9 hPa 0,0 l/m 0 min 0 min 5 W/m 14,6 km/h (3 Bft) 95,74 %
07.10.2017 06:04 9,3 C 9,4 C 7,8 C 91 % 0 lf 1020,9 hPa 0,0 l/m 0 min 0 min 5 W/m 14,6 km/h (3 Bft) 93,62 %
07.10.2017 06:06 9,4 C 9,4 C 8,3 C 91 % 0 lf 1020,8 hPa 0,0 l/m 0 min 0 min 5 W/m 14,6 km/h (3 Bft) 95,65 %
07.10.2017 06:10 9,3 C 9,4 C 7,8 C 91 % 0 lf 1020,8 hPa 0,0 l/m 0 min 0 min 5 W/m 14,6 km/h (3 Bft) 94,00 %
07.10.2017 06:12 9,3 C 9,4 C 7,8 C 91 % 0 lf 1020,8 hPa 0,0 l/m 0 min 0 min 5 W/m 12,6 km/h (3 Bft) 95,74 %
07.10.2017 06:14 9,3 C 9,4 C 7,8 C 91 % 0 lf 1020,8 hPa 0,0 l/m 0 min 0 min 5 W/m 16,7 km/h (3 Bft) 93,62 %
07.10.2017 06:16 9,3 C 9,4 C 7,8 C 91 % 0 lf 1020,7 hPa 0,0 l/m 0 min 0 min 5 W/m 14,6 km/h (3 Bft) 95,65 %
07.10.2017 06:18 9,3 C 8,9 C 7,8 C 91 % 0 lf 1020,7 hPa 0,0 l/m 0 min 0 min 5 W/m 16,7 km/h (3 Bft) 91,49 %
07.10.2017 06:20 9,3 C 8,9 C 7,8 C 91 % 0 lf 1020,8 hPa 0,0 l/m 0 min 0 min 5 W/m 10,5 km/h (2 Bft) 100,00 %
07.10.2017 06:22 9,3 C 8,9 C 7,8 C 91 % 0 lf 1020,9 hPa 0,0 l/m 0 min 0 min 5 W/m 16,7 km/h (3 Bft) 97,87 %
07.10.2017 06:24 9,3 C 9,4 C 7,8 C 91 % 0 lf 1020,9 hPa 0,0 l/m 0 min 0 min 5 W/m 14,6 km/h (3 Bft) 97,87 %
07.10.2017 06:26 9,3 C 9,4 C 7,8 C 91 % 0 lf 1020,9 hPa 0,0 l/m 0 min 0 min 5 W/m 16,7 km/h (3 Bft) 95,74 %
07.10.2017 06:28 9,3 C 9,4 C 8,3 C 91 % 0 lf 1021,0 hPa 0,0 l/m 0 min 0 min 5 W/m 16,7 km/h (3 Bft) 93,48 %
07.10.2017 06:30 9,3 C 9,4 C 8,3 C 91 % 0 lf 1021,0 hPa 0,0 l/m 0 min 0 min 5 W/m 14,6 km/h (3 Bft) 97,87 %
07.10.2017 06:32 9,3 C 9,4 C 8,3 C 90 % 0 lf 1020,9 hPa 0,0 l/m 0 min 0 min 5 W/m 12,6 km/h (3 Bft) 97,87 %
07.10.2017 06:34 9,3 C 9,4 C 8,3 C 90 % 0 lf 1020,9 hPa 0,0 l/m 0 min 0 min 5 W/m 10,5 km/h (2 Bft) 97,87 %
07.10.2017 06:36 9,3 C 9,4 C 8,3 C 90 % 0 lf 1020,9 hPa 0,0 l/m 0 min 0 min 5 W/m 14,6 km/h (3 Bft) 97,87 %
07.10.2017 06:38 9,3 C 8,9 C 8,3 C 90 % 0 lf 1020,9 hPa 0,0 l/m 0 min 0 min 5 W/m 18,8 km/h (3 Bft) 93,62 %
07.10.2017 06:40 9,3 C 9,4 C 8,3 C 90 % 0 lf 1021,0 hPa 0,0 l/m 0 min 0 min 5 W/m 14,6 km/h (3 Bft) 100,00 %
07.10.2017 06:42 9,3 C 9,4 C 8,3 C 90 % 0 lf 1020,9 hPa 0,0 l/m 0 min 0 min 5 W/m 18,8 km/h (3 Bft) 97,87 %
07.10.2017 06:44 9,3 C 9,4 C 8,3 C 90 % 0 lf 1020,8 hPa 0,0 l/m 0 min 0 min 5 W/m 12,6 km/h (3 Bft) 100,00 %
07.10.2017 06:46 9,3 C 9,4 C 8,3 C 90 % 0 lf 1020,8 hPa 0,0 l/m 0 min 0 min 5 W/m 16,7 km/h (3 Bft) 100,00 %
07.10.2017 06:48 9,3 C 9,4 C 8,3 C 90 % 0 lf 1020,8 hPa 0,0 l/m 0 min 0 min 5 W/m 14,6 km/h (3 Bft) 100,00 %
07.10.2017 06:50 9,3 C 9,4 C 8,3 C 90 % 0 lf 1020,8 hPa 0,0 l/m 0 min 0 min 5 W/m 16,7 km/h (3 Bft) 100,00 %
07.10.2017 06:52 9,3 C 9,4 C 8,3 C 90 % 0 lf 1020,8 hPa 0,0 l/m 0 min 0 min 5 W/m 14,6 km/h (3 Bft) 100,00 %
07.10.2017 06:54 9,3 C 9,4 C 8,3 C 90 % 0 lf 1020,8 hPa 0,0 l/m 0 min 0 min 5 W/m 18,8 km/h (3 Bft) 97,87 %
07.10.2017 06:56 9,3 C 9,4 C 8,3 C 89 % 0 lf 1020,9 hPa 0,0 l/m 0 min 0 min 5 W/m 14,6 km/h (3 Bft) 100,00 %
07.10.2017 06:58 9,3 C 9,4 C 8,3 C 89 % 0 lf 1020,9 hPa 0,0 l/m 0 min 0 min 5 W/m 16,7 km/h (3 Bft) 100,00 %
07.10.2017 07:00 9,3 C 9,4 C 8,3 C 89 % 0 lf 1020,9 hPa 0,0 l/m 0 min 0 min 5 W/m 20,9 km/h (4 Bft) 100,00 %
07.10.2017 07:02 9,3 C 9,4 C 8,3 C 89 % 0 lf 1020,8 hPa 0,0 l/m 0 min 0 min 5 W/m 16,7 km/h (3 Bft) 91,30 %
07.10.2017 07:04 9,3 C 9,4 C 8,3 C 89 % 0 lf 1020,8 hPa 0,0 l/m 0 min 0 min 5 W/m 16,7 km/h (3 Bft) 97,87 %
07.10.2017 07:06 9,3 C 9,4 C 8,3 C 89 % 0 lf 1020,8 hPa 0,0 l/m 0 min 0 min 5 W/m 14,6 km/h (3 Bft) 95,74 %
07.10.2017 07:08 9,4 C 9,4 C 8,3 C 88 % 0 lf 1020,8 hPa 0,0 l/m 0 min 0 min 5 W/m 16,7 km/h (3 Bft) 97,87 %
07.10.2017 07:10 9,4 C 9,4 C 8,3 C 88 % 0 lf 1020,8 hPa 0,0 l/m 0 min 0 min 5 W/m 20,9 km/h (4 Bft) 97,87 %
07.10.2017 07:12 9,4 C 9,4 C 8,3 C 88 % 0 lf 1020,8 hPa 0,0 l/m 0 min 0 min 5 W/m 16,7 km/h (3 Bft) 97,87 %
07.10.2017 07:14 9,4 C 9,4 C 8,3 C 88 % 0 lf 1020,9 hPa 0,0 l/m 0 min 0 min 5 W/m 16,7 km/h (3 Bft) 93,48 %
07.10.2017 07:16 9,4 C 9,4 C 8,3 C 88 % 0 lf 1020,8 hPa 0,0 l/m 0 min 0 min 5 W/m 16,7 km/h (3 Bft) 97,56 %
07.10.2017 07:18 9,4 C 9,4 C 8,3 C 88 % 0 lf 1020,8 hPa 0,0 l/m 0 min 0 min 5 W/m 14,6 km/h (3 Bft) 100,00 %
07.10.2017 07:20 9,4 C 9,4 C 8,3 C 88 % 0 lf 1020,8 hPa 0,0 l/m 0 min 0 min 5 W/m 14,6 km/h (3 Bft) 100,00 %
07.10.2017 07:22 9,4 C 9,4 C 8,3 C 88 % 0 lf 1020,7 hPa 0,0 l/m 0 min 0 min 5 W/m 16,7 km/h (3 Bft) 97,87 %
07.10.2017 07:24 9,4 C 9,4 C 8,3 C 88 % 0 lf 1020,8 hPa 0,0 l/m 0 min 0 min 5 W/m 16,7 km/h (3 Bft) 95,74 %
07.10.2017 07:26 9,4 C 9,4 C 8,3 C 87 % 0 lf 1020,7 hPa 0,0 l/m 0 min 0 min 5 W/m 20,9 km/h (4 Bft) 95,65 %
07.10.2017 07:28 9,4 C 9,4 C 8,3 C 87 % 0 lf 1020,7 hPa 0,0 l/m 0 min 0 min 5 W/m 16,7 km/h (3 Bft) 95,74 %
07.10.2017 07:30 9,4 C 9,4 C 8,3 C 87 % 0 lf 1020,7 hPa 0,0 l/m 0 min 0 min 5 W/m 12,6 km/h (3 Bft) 100,00 %
07.10.2017 07:32 9,4 C 9,4 C 8,3 C 87 % 0 lf 1020,7 hPa 0,0 l/m 0 min 0 min 5 W/m 14,6 km/h (3 Bft) 100,00 %
07.10.2017 07:34 9,4 C 9,4 C 8,3 C 87 % 0 lf 1020,7 hPa 0,0 l/m 0 min 0 min 5 W/m 16,7 km/h (3 Bft) 95,74 %
07.10.2017 07:36 9,4 C 9,4 C 8,3 C 87 % 0 lf 1020,7 hPa 0,0 l/m 0 min 0 min 5 W/m 18,8 km/h (3 Bft) 97,87 %
07.10.2017 07:38 9,4 C 9,4 C 8,3 C 87 % 0 lf 1020,7 hPa 0,0 l/m 0 min 0 min 5 W/m 16,7 km/h (3 Bft) 95,65 %
07.10.2017 07:40 9,4 C 9,4 C 8,3 C 87 % 0 lf 1020,7 hPa 0,0 l/m 0 min 0 min 7 W/m 14,6 km/h (3 Bft) 93,62 %
07.10.2017 07:42 9,4 C 9,4 C 8,3 C 87 % 0 lf 1020,7 hPa 0,0 l/m 0 min 0 min 7 W/m 12,6 km/h (3 Bft) 93,62 %
07.10.2017 07:44 9,4 C 9,4 C 8,3 C 87 % 0 lf 1020,7 hPa 0,0 l/m 0 min 0 min 1 W/m 10,5 km/h (2 Bft) 97,87 %
07.10.2017 07:46 9,4 C 9,4 C 8,3 C 87 % 0 lf 1020,6 hPa 0,0 l/m 0 min 0 min 0 W/m 14,6 km/h (3 Bft) 95,12 %
07.10.2017 07:48 9,4 C 9,4 C 8,3 C 87 % 0 lf 1020,7 hPa 0,0 l/m 0 min 0 min 2 W/m 18,8 km/h (3 Bft) 96,23 %
07.10.2017 07:50 9,4 C 9,4 C 8,3 C 87 % 0 lf 1020,5 hPa 0,0 l/m 0 min 0 min 5 W/m 14,6 km/h (3 Bft) 95,65 %
07.10.2017 07:52 9,4 C 9,4 C 8,3 C 87 % 0 lf 1020,5 hPa 0,0 l/m 0 min 0 min 5 W/m 14,6 km/h (3 Bft) 91,49 %
07.10.2017 07:54 9,4 C 9,4 C 8,3 C 87 % 0 lf 1020,4 hPa 0,0 l/m 0 min 0 min 5 W/m 12,6 km/h (3 Bft) 93,62 %
07.10.2017 07:56 9,4 C 9,4 C 8,3 C 87 % 0 lf 1020,4 hPa 0,0 l/m 0 min 0 min 5 W/m 14,6 km/h (3 Bft) 91,49 %
07.10.2017 07:58 9,4 C 9,4 C 8,3 C 87 % 0 lf 1020,4 hPa 0,0 l/m 0 min 0 min 5 W/m 14,6 km/h (3 Bft) 95,74 %
07.10.2017 08:00 9,4 C 9,4 C 7,8 C 87 % 0 lf 1020,4 hPa 0,0 l/m 0 min 0 min 7 W/m 16,7 km/h (3 Bft) 97,87 %
07.10.2017 08:02 9,4 C 9,4 C 7,8 C 87 % 0 lf 1020,4 hPa 0,0 l/m 0 min 0 min 7 W/m 16,7 km/h (3 Bft) 92,50 %
07.10.2017 08:04 9,4 C 9,4 C 7,8 C 87 % 0 lf 1020,4 hPa 0,0 l/m 0 min 0 min 8 W/m 12,6 km/h (3 Bft) 94,34 %
07.10.2017 08:06 9,4 C 8,9 C 7,8 C 86 % 0 lf 1020,4 hPa 0,0 l/m 0 min 0 min 10 W/m 10,5 km/h (2 Bft) 93,62 %
07.10.2017 08:08 9,4 C 8,9 C 7,8 C 86 % 0 lf 1020,3 hPa 0,0 l/m 0 min 0 min 11 W/m 12,6 km/h (3 Bft) 87,23 %
07.10.2017 08:10 9,4 C 8,9 C 7,8 C 86 % 0 lf 1020,1 hPa 0,0 l/m 0 min 0 min 12 W/m 12,6 km/h (3 Bft) 87,23 %
07.10.2017 08:12 9,4 C 8,9 C 7,8 C 86 % 0 lf 1020,1 hPa 0,0 l/m 0 min 0 min 15 W/m 12,6 km/h (3 Bft) 95,74 %
07.10.2017 08:14 9,3 C 8,9 C 7,8 C 86 % 0 lf 1020,1 hPa 0,0 l/m 0 min 0 min 17 W/m 14,6 km/h (3 Bft) 93,48 %
07.10.2017 08:16 9,3 C 8,9 C 7,8 C 86 % 0 lf 1020,0 hPa 0,0 l/m 0 min 0 min 19 W/m 14,6 km/h (3 Bft) 92,68 %
07.10.2017 08:18 9,3 C 8,9 C 7,8 C 87 % 0 lf 1020,0 hPa 0,0 l/m 0 min 0 min 21 W/m 14,6 km/h (3 Bft) 96,23 %
07.10.2017 08:20 9,3 C 9,4 C 7,8 C 87 % 0 lf 1019,9 hPa 0,0 l/m 0 min 0 min 25 W/m 14,6 km/h (3 Bft) 85,11 %
07.10.2017 08:22 9,3 C 9,4 C 7,8 C 87 % 0 lf 1019,9 hPa 0,0 l/m 0 min 0 min 31 W/m 8,4 km/h (2 Bft) 87,23 %
07.10.2017 08:24 9,3 C 9,4 C 8,3 C 87 % 0 lf 1019,9 hPa 0,0 l/m 0 min 0 min 36 W/m 12,6 km/h (3 Bft) 87,23 %
07.10.2017 08:26 9,3 C 9,4 C 8,3 C 87 % 0 lf 1019,8 hPa 0,0 l/m 0 min 0 min 40 W/m 14,6 km/h (3 Bft) 84,78 %
07.10.2017 08:28 9,3 C 9,4 C 8,3 C 87 % 0 lf 1019,9 hPa 0,0 l/m 0 min 0 min 42 W/m 14,6 km/h (3 Bft) 93,62 %
07.10.2017 08:30 9,3 C 9,4 C 8,3 C 87 % 0 lf 1019,9 hPa 0,0 l/m 0 min 0 min 45 W/m 18,8 km/h (3 Bft) 89,36 %
07.10.2017 08:32 9,3 C 9,4 C 8,3 C 87 % 0 lf 1019,9 hPa 0,0 l/m 0 min 0 min 52 W/m 16,7 km/h (3 Bft) 90,24 %
07.10.2017 08:34 9,3 C 9,4 C 8,9 C 87 % 0 lf 1019,9 hPa 0,0 l/m 0 min 0 min 55 W/m 20,9 km/h (4 Bft) 92,45 %
07.10.2017 08:36 9,3 C 10,0 C 8,9 C 86 % 0 lf 1019,8 hPa 0,0 l/m 2 min 0 min 61 W/m 18,8 km/h (3 Bft) 95,74 %
07.10.2017 08:38 9,4 C 10,0 C 8,9 C 86 % 0 lf 1019,8 hPa 0,0 l/m 2 min 0 min 69 W/m 18,8 km/h (3 Bft) 86,96 %
07.10.2017 08:40 9,4 C 10,0 C 8,9 C 86 % 0 lf 1019,9 hPa 0,0 l/m 2 min 0 min 75 W/m 16,7 km/h (3 Bft) 95,74 %
07.10.2017 08:42 9,4 C 10,0 C 8,9 C 86 % 0 lf 1019,8 hPa 0,0 l/m 2 min 0 min 77 W/m 16,7 km/h (3 Bft) 87,23 %
07.10.2017 08:44 9,4 C 10,0 C 8,9 C 86 % 0 lf 1019,7 hPa 0,0 l/m 2 min 0 min 76 W/m 18,8 km/h (3 Bft) 91,49 %
07.10.2017 08:46 9,4 C 10,0 C 8,9 C 86 % 0 lf 1019,7 hPa 0,0 l/m 0 min 0 min 72 W/m 14,6 km/h (3 Bft) 92,68 %
07.10.2017 08:48 9,5 C 10,0 C 8,9 C 86 % 0 lf 1019,7 hPa 0,0 l/m 0 min 0 min 65 W/m 16,7 km/h (3 Bft) 90,38 %
07.10.2017 08:50 9,5 C 10,0 C 8,9 C 86 % 0 lf 1019,7 hPa 0,0 l/m 0 min 0 min 56 W/m 20,9 km/h (4 Bft) 93,62 %
07.10.2017 08:52 9,6 C 10,0 C 8,9 C 86 % 0 lf 1019,7 hPa 0,0 l/m 0 min 0 min 52 W/m 20,9 km/h (4 Bft) 93,62 %
07.10.2017 08:54 9,6 C 10,0 C 8,9 C 86 % 0 lf 1019,8 hPa 0,0 l/m 0 min 0 min 47 W/m 20,9 km/h (4 Bft) 93,62 %
07.10.2017 08:56 9,7 C 10,0 C 8,9 C 86 % 0 lf 1019,7 hPa 0,0 l/m 0 min 0 min 57 W/m 25,1 km/h (4 Bft) 91,49 %
07.10.2017 08:58 9,7 C 10,6 C 9,4 C 85 % 0 lf 1019,6 hPa 0,0 l/m 0 min 0 min 71 W/m 16,7 km/h (3 Bft) 87,23 %
07.10.2017 09:00 9,7 C 10,6 C 9,4 C 85 % 0 lf 1019,6 hPa 0,0 l/m 0 min 0 min 72 W/m 23,0 km/h (4 Bft) 89,13 %
07.10.2017 09:02 9,8 C 10,6 C 9,4 C 85 % 0 lf 1019,6 hPa 0,0 l/m 0 min 0 min 64 W/m 23,0 km/h (4 Bft) 91,49 %
07.10.2017 09:04 9,8 C 10,6 C 9,4 C 85 % 0 lf 1019,5 hPa 0,0 l/m 0 min 0 min 67 W/m 16,7 km/h (3 Bft) 89,36 %
07.10.2017 09:06 9,8 C 10,6 C 9,4 C 85 % 0 lf 1019,5 hPa 0,0 l/m 0 min 0 min 68 W/m 25,1 km/h (4 Bft) 95,74 %
07.10.2017 09:08 9,8 C 10,6 C 9,4 C 85 % 0 lf 1019,5 hPa 0,0 l/m 0 min 0 min 63 W/m 25,1 km/h (4 Bft) 85,11 %
07.10.2017 09:10 9,9 C 10,6 C 9,4 C 85 % 0 lf 1019,5 hPa 0,0 l/m 0 min 0 min 54 W/m 16,7 km/h (3 Bft) 95,74 %
07.10.2017 09:12 9,9 C 10,6 C 9,4 C 85 % 0 lf 1019,5 hPa 0,0 l/m 0 min 0 min 49 W/m 20,9 km/h (4 Bft) 95,65 %
07.10.2017 09:14 9,9 C 10,6 C 9,4 C 85 % 0 lf 1019,5 hPa 0,0 l/m 0 min 0 min 52 W/m 23,0 km/h (4 Bft) 93,62 %
07.10.2017 09:16 9,9 C 10,6 C 9,4 C 85 % 0 lf 1019,5 hPa 0,0 l/m 0 min 0 min 48 W/m 18,8 km/h (3 Bft) 95,12 %
07.10.2017 09:18 10,0 C 10,6 C 9,4 C 85 % 0 lf 1019,5 hPa 0,0 l/m 0 min 0 min 46 W/m 25,1 km/h (4 Bft) 96,15 %
07.10.2017 09:20 10,0 C 10,6 C 9,4 C 84 % 0 lf 1019,4 hPa 0,0 l/m 0 min 0 min 54 W/m 25,1 km/h (4 Bft) 91,49 %
07.10.2017 09:22 10,1 C 10,6 C 9,4 C 84 % 0 lf 1019,4 hPa 0,0 l/m 0 min 0 min 61 W/m 18,8 km/h (3 Bft) 93,62 %
07.10.2017 09:24 10,1 C 10,6 C 9,4 C 84 % 0 lf 1019,3 hPa 0,0 l/m 0 min 0 min 86 W/m 20,9 km/h (4 Bft) 95,65 %
07.10.2017 09:30 10,2 C 11,1 C 10,0 C 84 % 0 lf 1019,3 hPa 0,0 l/m 0 min 0 min 105 W/m 20,9 km/h (4 Bft) 88,89 %
07.10.2017 09:32 10,2 C 11,1 C 10,0 C 84 % 0 lf 1019,3 hPa 0,0 l/m 0 min 0 min 88 W/m 16,7 km/h (3 Bft) 97,87 %
07.10.2017 09:34 10,2 C 11,1 C 10,0 C 84 % 0 lf 1019,3 hPa 0,0 l/m 0 min 0 min 77 W/m 12,6 km/h (3 Bft) 95,65 %
07.10.2017 09:36 10,3 C 11,1 C 10,0 C 84 % 0 lf 1019,3 hPa 0,0 l/m 0 min 0 min 70 W/m 20,9 km/h (4 Bft) 97,87 %
07.10.2017 09:38 10,3 C 11,1 C 10,0 C 84 % 0 lf 1019,2 hPa 0,0 l/m 0 min 0 min 64 W/m 20,9 km/h (4 Bft) 87,23 %
07.10.2017 09:40 10,3 C 10,6 C 10,0 C 84 % 0 lf 1019,2 hPa 0,0 l/m 0 min 0 min 67 W/m 25,1 km/h (4 Bft) 95,74 %
07.10.2017 09:42 10,3 C 11,1 C 10,0 C 84 % 0 lf 1019,2 hPa 0,0 l/m 0 min 0 min 79 W/m 12,6 km/h (3 Bft) 91,49 %
07.10.2017 09:44 10,3 C 11,1 C 10,0 C 84 % 0 lf 1019,2 hPa 0,0 l/m 0 min 0 min 93 W/m 23,0 km/h (4 Bft) 95,74 %
07.10.2017 09:46 10,3 C 11,1 C 10,0 C 84 % 0 lf 1019,1 hPa 0,0 l/m 0 min 0 min 100 W/m 23,0 km/h (4 Bft) 93,48 %
07.10.2017 09:48 10,4 C 11,1 C 10,0 C 84 % 0 lf 1019,1 hPa 0,0 l/m 0 min 0 min 90 W/m 31,4 km/h (5 Bft) 97,87 %
07.10.2017 09:50 10,4 C 11,1 C 10,0 C 84 % 0 lf 1019,1 hPa 0,0 l/m 0 min 0 min 89 W/m 20,9 km/h (4 Bft) 93,62 %
07.10.2017 09:56 10,5 C 11,1 C 10,0 C 84 % 0 lf 1019,2 hPa 0,0 l/m 0 min 0 min 90 W/m 25,1 km/h (4 Bft) 84,21 %
07.10.2017 09:58 10,5 C 11,1 C 10,0 C 84 % 0 lf 1019,1 hPa 0,0 l/m 0 min 0 min 69 W/m 29,3 km/h (5 Bft) 93,48 %
07.10.2017 10:00 10,5 C 10,6 C 10,0 C 83 % 0 lf 1019,1 hPa 0,0 l/m 0 min 0 min 61 W/m 25,1 km/h (4 Bft) 95,83 %
07.10.2017 10:02 10,5 C 10,6 C 10,0 C 83 % 0 lf 1019,1 hPa 0,0 l/m 0 min 0 min 58 W/m 29,3 km/h (5 Bft) 93,48 %
07.10.2017 10:04 10,5 C 10,6 C 10,0 C 83 % 0 lf 1019,1 hPa 0,0 l/m 0 min 0 min 65 W/m 29,3 km/h (5 Bft) 95,74 %
07.10.2017 10:06 10,6 C 10,6 C 10,0 C 83 % 0 lf 1018,9 hPa 0,0 l/m 0 min 0 min 69 W/m 23,0 km/h (4 Bft) 93,62 %
07.10.2017 10:08 10,6 C 10,6 C 10,0 C 83 % 0 lf 1018,9 hPa 0,0 l/m 0 min 0 min 73 W/m 23,0 km/h (4 Bft) 93,62 %
07.10.2017 10:10 10,6 C 10,6 C 10,0 C 83 % 0 lf 1018,9 hPa 0,0 l/m 0 min 0 min 76 W/m 27,2 km/h (4 Bft) 91,30 %
07.10.2017 10:12 10,6 C 11,1 C 10,0 C 83 % 0 lf 1018,8 hPa 0,0 l/m 0 min 0 min 65 W/m 25,1 km/h (4 Bft) 95,74 %
07.10.2017 10:14 10,6 C 11,1 C 10,0 C 83 % 0 lf 1018,9 hPa 0,0 l/m 0 min 0 min 57 W/m 18,8 km/h (3 Bft) 93,62 %
07.10.2017 10:16 10,6 C 10,6 C 10,0 C 83 % 0 lf 1018,8 hPa 0,0 l/m 0 min 0 min 56 W/m 20,9 km/h (4 Bft) 97,87 %
07.10.2017 10:18 10,6 C 11,1 C 10,0 C 83 % 0 lf 1018,9 hPa 0,0 l/m 0 min 0 min 64 W/m 27,2 km/h (4 Bft) 93,62 %
07.10.2017 10:20 10,6 C 11,1 C 10,0 C 83 % 0 lf 1018,8 hPa 0,0 l/m 0 min 0 min 73 W/m 37,7 km/h (5 Bft) 93,62 %
07.10.2017 10:22 10,6 C 11,1 C 10,0 C 83 % 0 lf 1018,8 hPa 0,0 l/m 0 min 0 min 96 W/m 27,2 km/h (4 Bft) 93,48 %
07.10.2017 10:24 10,6 C 11,1 C 10,0 C 83 % 0 lf 1018,7 hPa 0,0 l/m 0 min 0 min 118 W/m 23,0 km/h (4 Bft) 95,74 %
07.10.2017 10:26 10,7 C 11,1 C 10,6 C 83 % 0 lf 1018,7 hPa 0,0 l/m 0 min 0 min 118 W/m 23,0 km/h (4 Bft) 95,74 %
07.10.2017 10:28 10,7 C 11,1 C 10,6 C 83 % 0 lf 1018,7 hPa 0,0 l/m 0 min 0 min 114 W/m 27,2 km/h (4 Bft) 95,74 %
07.10.2017 10:30 10,7 C 11,7 C 10,6 C 83 % 0 lf 1018,7 hPa 0,0 l/m 0 min 0 min 137 W/m 23,0 km/h (4 Bft) 93,62 %
07.10.2017 10:32 10,7 C 11,7 C 10,6 C 83 % 0 lf 1018,8 hPa 0,0 l/m 0 min 0 min 119 W/m 31,4 km/h (5 Bft) 97,87 %
07.10.2017 10:34 10,7 C 11,1 C 10,6 C 83 % 0 lf 1018,9 hPa 0,0 l/m 0 min 0 min 88 W/m 39,7 km/h (6 Bft) 97,83 %
07.10.2017 10:36 10,8 C 11,1 C 10,0 C 83 % 1 lf 1018,8 hPa 0,0 l/m 0 min 0 min 80 W/m 31,4 km/h (5 Bft) 97,87 %
07.10.2017 10:38 10,8 C 11,1 C 10,0 C 83 % 2 lf 1018,9 hPa 0,0 l/m 0 min 2 min 71 W/m 27,2 km/h (4 Bft) 95,74 %
07.10.2017 10:40 10,8 C 11,1 C 10,0 C 83 % 0 lf 1018,8 hPa 0,0 l/m 0 min 2 min 77 W/m 18,8 km/h (3 Bft) 95,74 %
07.10.2017 10:42 10,8 C 11,1 C 10,0 C 83 % 0 lf 1018,8 hPa 0,0 l/m 0 min 0 min 92 W/m 29,3 km/h (5 Bft) 97,87 %
07.10.2017 10:44 10,8 C 11,1 C 10,0 C 83 % 0 lf 1018,8 hPa 0,0 l/m 0 min 2 min 98 W/m 35,6 km/h (5 Bft) 95,65 %
07.10.2017 10:46 10,8 C 11,1 C 10,0 C 83 % 0 lf 1018,6 hPa 0,0 l/m 0 min 0 min 97 W/m 37,7 km/h (5 Bft) 97,87 %
07.10.2017 10:48 10,8 C 11,1 C 10,0 C 82 % 0 lf 1018,7 hPa 0,0 l/m 0 min 0 min 90 W/m 31,4 km/h (5 Bft) 97,87 %
07.10.2017 10:50 10,8 C 11,1 C 10,0 C 82 % 0 lf 1018,6 hPa 0,0 l/m 0 min 0 min 82 W/m 37,7 km/h (5 Bft) 95,74 %
07.10.2017 10:52 10,8 C 11,1 C 10,6 C 82 % 0 lf 1018,7 hPa 0,0 l/m 0 min 0 min 88 W/m 27,2 km/h (4 Bft) 91,49 %
07.10.2017 10:54 10,8 C 11,1 C 10,6 C 82 % 0 lf 1018,8 hPa 0,0 l/m 0 min 0 min 101 W/m 27,2 km/h (4 Bft) 97,87 %
07.10.2017 10:56 10,9 C 11,7 C 10,6 C 82 % 0 lf 1018,5 hPa 0,0 l/m 0 min 0 min 104 W/m 23,0 km/h (4 Bft) 93,48 %
07.10.2017 10:58 10,9 C 11,7 C 10,6 C 82 % 0 lf 1018,5 hPa 0,0 l/m 0 min 0 min 115 W/m 23,0 km/h (4 Bft) 95,74 %
07.10.2017 11:00 10,9 C 11,7 C 10,6 C 82 % 0 lf 1018,4 hPa 0,0 l/m 0 min 0 min 131 W/m 25,1 km/h (4 Bft) 91,49 %
07.10.2017 11:02 10,9 C 11,7 C 11,1 C 82 % 0 lf 1018,4 hPa 0,0 l/m 0 min 0 min 141 W/m 37,7 km/h (5 Bft) 95,74 %
07.10.2017 11:04 11,0 C 11,7 C 11,1 C 82 % 0 lf 1018,4 hPa 0,0 l/m 0 min 0 min 160 W/m 39,7 km/h (6 Bft) 91,49 %
07.10.2017 11:06 11,1 C 12,2 C 11,1 C 81 % 0 lf 1018,4 hPa 0,0 l/m 0 min 0 min 160 W/m 27,2 km/h (4 Bft) 91,49 %
07.10.2017 11:08 11,1 C 11,7 C 11,1 C 81 % 0 lf 1018,3 hPa 0,0 l/m 0 min 0 min 149 W/m 39,7 km/h (6 Bft) 89,13 %
07.10.2017 11:10 11,1 C 11,7 C 11,1 C 81 % 0 lf 1018,4 hPa 0,0 l/m 0 min 0 min 143 W/m 33,5 km/h (5 Bft) 89,36 %
07.10.2017 11:12 11,2 C 11,7 C 11,1 C 81 % 0 lf 1018,3 hPa 0,0 l/m 0 min 0 min 138 W/m 46,0 km/h (6 Bft) 91,49 %
07.10.2017 11:14 11,2 C 11,7 C 11,1 C 80 % 1 lf 1018,3 hPa 0,0 l/m 0 min 0 min 127 W/m 31,4 km/h (5 Bft) 93,62 %
07.10.2017 11:16 11,2 C 11,7 C 10,6 C 80 % 2 lf 1018,3 hPa 0,0 l/m 0 min 2 min 115 W/m 37,7 km/h (5 Bft) 95,74 %
07.10.2017 11:18 11,3 C 11,7 C 10,6 C 80 % 0 lf 1018,2 hPa 0,0 l/m 0 min 0 min 122 W/m 33,5 km/h (5 Bft) 89,36 %
07.10.2017 11:20 11,3 C 11,7 C 10,6 C 81 % 0 lf 1018,1 hPa 0,0 l/m 0 min 0 min 139 W/m 33,5 km/h (5 Bft) 93,62 %
07.10.2017 11:22 11,3 C 11,7 C 10,6 C 81 % 0 lf 1018,1 hPa 0,0 l/m 0 min 0 min 162 W/m 39,7 km/h (6 Bft) 95,65 %
07.10.2017 11:24 11,3 C 12,2 C 11,1 C 80 % 0 lf 1018,2 hPa 0,0 l/m 0 min 0 min 189 W/m 41,8 km/h (6 Bft) 95,74 %
07.10.2017 11:26 11,3 C 12,2 C 11,7 C 80 % 0 lf 1018,1 hPa 0,0 l/m 0 min 0 min 195 W/m 29,3 km/h (5 Bft) 89,36 %
07.10.2017 11:28 11,4 C 12,2 C 11,7 C 81 % 0 lf 1018,1 hPa 0,0 l/m 0 min 0 min 173 W/m 31,4 km/h (5 Bft) 91,49 %
07.10.2017 11:30 11,4 C 12,2 C 11,7 C 81 % 0 lf 1018,2 hPa 0,0 l/m 0 min 0 min 153 W/m 33,5 km/h (5 Bft) 89,36 %
07.10.2017 11:32 11,4 C 12,2 C 11,1 C 81 % 0 lf 1018,1 hPa 0,0 l/m 0 min 0 min 136 W/m 39,7 km/h (6 Bft) 89,13 %
07.10.2017 11:34 11,4 C 12,2 C 11,1 C 80 % 0 lf 1017,9 hPa 0,0 l/m 0 min 0 min 126 W/m 35,6 km/h (5 Bft) 91,49 %
07.10.2017 11:36 11,4 C 12,2 C 11,1 C 80 % 0 lf 1017,9 hPa 0,0 l/m 0 min 0 min 116 W/m 31,4 km/h (5 Bft) 95,74 %
07.10.2017 11:38 11,4 C 11,7 C 11,1 C 80 % 0 lf 1017,9 hPa 0,0 l/m 0 min 0 min 106 W/m 33,5 km/h (5 Bft) 95,74 %
07.10.2017 11:40 11,4 C 11,7 C 10,6 C 80 % 0 lf 1017,8 hPa 0,0 l/m 0 min 2 min 106 W/m 35,6 km/h (5 Bft) 93,62 %
07.10.2017 11:42 11,4 C 11,7 C 10,6 C 80 % 1 lf 1017,6 hPa 0,0 l/m 0 min 0 min 108 W/m 35,6 km/h (5 Bft) 93,62 %
07.10.2017 11:44 11,4 C 11,7 C 10,6 C 80 % 0 lf 1017,6 hPa 0,0 l/m 0 min 2 min 131 W/m 29,3 km/h (5 Bft) 84,78 %
07.10.2017 11:46 11,4 C 11,7 C 11,1 C 81 % 0 lf 1017,5 hPa 0,0 l/m 0 min 0 min 156 W/m 33,5 km/h (5 Bft) 93,62 %
07.10.2017 11:48 11,4 C 12,2 C 11,1 C 81 % 0 lf 1017,5 hPa 0,0 l/m 0 min 0 min 162 W/m 31,4 km/h (5 Bft) 95,74 %
07.10.2017 11:50 11,4 C 12,2 C 11,7 C 81 % 0 lf 1017,5 hPa 0,0 l/m 0 min 0 min 169 W/m 27,2 km/h (4 Bft) 93,62 %
07.10.2017 11:52 11,5 C 12,2 C 11,7 C 81 % 0 lf 1017,4 hPa 0,0 l/m 0 min 0 min 159 W/m 41,8 km/h (6 Bft) 94,74 %
07.10.2017 11:54 11,5 C 12,2 C 11,7 C 81 % 0 lf 1017,4 hPa 0,0 l/m 0 min 0 min 149 W/m 25,1 km/h (4 Bft) 95,74 %
07.10.2017 11:56 11,6 C 12,2 C 11,7 C 81 % 0 lf 1017,4 hPa 0,0 l/m 0 min 0 min 169 W/m 29,3 km/h (5 Bft) 85,11 %
07.10.2017 11:58 11,6 C 12,8 C 11,7 C 81 % 0 lf 1017,4 hPa 0,0 l/m 0 min 0 min 176 W/m 29,3 km/h (5 Bft) 86,96 %
07.10.2017 12:00 11,6 C 12,2 C 11,7 C 81 % 0 lf 1017,4 hPa 0,0 l/m 0 min 0 min 160 W/m 39,7 km/h (6 Bft) 89,36 %
07.10.2017 12:02 11,6 C 12,2 C 11,7 C 81 % 0 lf 1017,4 hPa 0,0 l/m 0 min 0 min 138 W/m 31,4 km/h (5 Bft) 91,49 %
07.10.2017 12:04 11,7 C 12,2 C 11,7 C 81 % 0 lf 1017,3 hPa 0,0 l/m 0 min 0 min 111 W/m 33,5 km/h (5 Bft) 93,62 %
07.10.2017 12:06 11,7 C 12,2 C 11,1 C 81 % 0 lf 1017,3 hPa 0,0 l/m 0 min 0 min 95 W/m 33,5 km/h (5 Bft) 91,49 %
07.10.2017 12:10 11,7 C 11,7 C 11,1 C 81 % 1 lf 1017,3 hPa 0,0 l/m 0 min 4 min 84 W/m 41,8 km/h (6 Bft) 92,63 %
07.10.2017 12:12 11,7 C 11,7 C 11,1 C 81 % 2 lf 1017,3 hPa 0,0 l/m 0 min 2 min 82 W/m 31,4 km/h (5 Bft) 91,49 %
07.10.2017 12:14 11,7 C 11,7 C 11,1 C 81 % 2 lf 1017,3 hPa 0,0 l/m 0 min 2 min 84 W/m 35,6 km/h (5 Bft) 97,87 %
07.10.2017 12:16 11,7 C 11,7 C 10,6 C 81 % 4 lf 1017,3 hPa 0,0 l/m 0 min 0 min 79 W/m 48,1 km/h (6 Bft) 95,74 %
07.10.2017 12:18 11,6 C 11,7 C 10,6 C 82 % 4 lf 1017,3 hPa 0,0 l/m 0 min 2 min 81 W/m 43,9 km/h (6 Bft) 93,48 %
07.10.2017 12:20 11,6 C 11,1 C 10,0 C 82 % 10 lf 1017,3 hPa 0,0 l/m 0 min 2 min 84 W/m 46,0 km/h (6 Bft) 95,74 %
07.10.2017 12:22 11,6 C 11,1 C 9,4 C 82 % 15 lf 1017,3 hPa 0,0 l/m 0 min 2 min 75 W/m 33,5 km/h (5 Bft) 89,36 %
07.10.2017 12:24 11,5 C 11,1 C 9,4 C 83 % 15 lf 1017,3 hPa 0,0 l/m 0 min 2 min 73 W/m 31,4 km/h (5 Bft) 95,74 %
07.10.2017 12:26 11,4 C 11,1 C 9,4 C 83 % 15 lf 1017,3 hPa 0,0 l/m 0 min 2 min 90 W/m 37,7 km/h (5 Bft) 91,49 %
07.10.2017 12:28 11,4 C 11,1 C 9,4 C 83 % 15 lf 1017,2 hPa 0,0 l/m 0 min 2 min 106 W/m 29,3 km/h (5 Bft) 95,74 %
07.10.2017 12:30 11,4 C 11,7 C 10,0 C 84 % 15 lf 1017,3 hPa 0,0 l/m 0 min 2 min 133 W/m 33,5 km/h (5 Bft) 93,48 %
07.10.2017 12:32 11,3 C 11,7 C 10,0 C 84 % 15 lf 1017,3 hPa 0,0 l/m 0 min 0 min 119 W/m 29,3 km/h (5 Bft) 95,74 %
07.10.2017 12:34 11,3 C 11,7 C 10,0 C 84 % 15 lf 1017,2 hPa 0,0 l/m 0 min 2 min 100 W/m 48,1 km/h (6 Bft) 93,62 %
07.10.2017 12:36 11,3 C 11,1 C 10,0 C 84 % 15 lf 1017,2 hPa 0,0 l/m 0 min 2 min 98 W/m 48,1 km/h (6 Bft) 95,74 %
07.10.2017 12:38 11,2 C 11,1 C 10,0 C 84 % 15 lf 1017,0 hPa 0,0 l/m 0 min 2 min 90 W/m 37,7 km/h (5 Bft) 93,62 %
07.10.2017 12:40 11,2 C 11,1 C 9,4 C 85 % 15 lf 1017,1 hPa 0,0 l/m 0 min 2 min 84 W/m 39,7 km/h (6 Bft) 93,62 %
07.10.2017 12:42 11,1 C 11,1 C 9,4 C 85 % 15 lf 1016,9 hPa 0,0 l/m 0 min 2 min 91 W/m 31,4 km/h (5 Bft) 95,65 %
07.10.2017 12:44 11,1 C 10,6 C 9,4 C 86 % 15 lf 1017,1 hPa 0,0 l/m 0 min 2 min 97 W/m 39,7 km/h (6 Bft) 95,74 %
07.10.2017 12:46 11,1 C 10,6 C 9,4 C 86 % 14 lf 1017,1 hPa 0,0 l/m 0 min 0 min 93 W/m 27,2 km/h (4 Bft) 93,62 %
07.10.2017 12:48 11,1 C 10,6 C 9,4 C 86 % 15 lf 1017,1 hPa 0,0 l/m 0 min 2 min 100 W/m 27,2 km/h (4 Bft) 93,62 %
07.10.2017 12:50 11,0 C 10,6 C 9,4 C 87 % 15 lf 1017,0 hPa 0,0 l/m 0 min 2 min 90 W/m 33,5 km/h (5 Bft) 95,74 %
07.10.2017 12:52 10,9 C 10,6 C 9,4 C 87 % 15 lf 1017,0 hPa 0,0 l/m 0 min 2 min 91 W/m 31,4 km/h (5 Bft) 93,62 %
07.10.2017 12:54 10,9 C 10,6 C 9,4 C 88 % 15 lf 1016,8 hPa 0,0 l/m 0 min 2 min 95 W/m 39,7 km/h (6 Bft) 95,65 %
07.10.2017 12:56 10,9 C 10,6 C 9,4 C 88 % 15 lf 1016,8 hPa 0,0 l/m 0 min 2 min 103 W/m 29,3 km/h (5 Bft) 95,74 %
07.10.2017 12:58 10,8 C 10,6 C 9,4 C 88 % 15 lf 1016,8 hPa 0,0 l/m 0 min 2 min 102 W/m 25,1 km/h (4 Bft) 93,62 %
07.10.2017 13:00 10,8 C 10,0 C 8,9 C 89 % 15 lf 1016,8 hPa 0,0 l/m 0 min 2 min 87 W/m 35,6 km/h (5 Bft) 93,62 %
07.10.2017 13:02 10,8 C 10,0 C 8,9 C 89 % 15 lf 1016,9 hPa 0,0 l/m 0 min 2 min 62 W/m 27,2 km/h (4 Bft) 91,49 %
07.10.2017 13:04 10,7 C 10,0 C 8,9 C 89 % 15 lf 1016,8 hPa 0,0 l/m 0 min 2 min 65 W/m 29,3 km/h (5 Bft) 97,87 %
07.10.2017 13:06 10,7 C 10,0 C 8,9 C 89 % 15 lf 1016,8 hPa 0,0 l/m 0 min 2 min 59 W/m 37,7 km/h (5 Bft) 93,48 %
07.10.2017 13:08 10,7 C 10,0 C 8,9 C 89 % 15 lf 1017,0 hPa 0,0 l/m 0 min 2 min 45 W/m 41,8 km/h (6 Bft) 95,74 %
07.10.2017 13:10 10,6 C 10,0 C 8,9 C 90 % 15 lf 1016,8 hPa 0,0 l/m 0 min 2 min 55 W/m 31,4 km/h (5 Bft) 97,87 %
07.10.2017 13:12 10,6 C 10,0 C 8,9 C 90 % 15 lf 1016,7 hPa 0,0 l/m 0 min 2 min 51 W/m 23,0 km/h (4 Bft) 95,74 %
07.10.2017 13:14 10,6 C 10,0 C 8,9 C 90 % 15 lf 1016,8 hPa 0,0 l/m 0 min 2 min 45 W/m 37,7 km/h (5 Bft) 97,87 %
07.10.2017 13:16 10,5 C 10,0 C 8,9 C 90 % 15 lf 1016,6 hPa 0,0 l/m 0 min 2 min 70 W/m 29,3 km/h (5 Bft) 93,48 %
07.10.2017 13:18 10,5 C 10,0 C 8,9 C 90 % 15 lf 1016,5 hPa 0,0 l/m 0 min 2 min 81 W/m 31,4 km/h (5 Bft) 93,62 %
07.10.2017 13:20 10,5 C 10,6 C 8,9 C 90 % 14 lf 1016,4 hPa 0,0 l/m 0 min 2 min 86 W/m 27,2 km/h (4 Bft) 93,62 %
07.10.2017 13:22 10,5 C 10,6 C 9,4 C 91 % 14 lf 1016,4 hPa 0,0 l/m 0 min 2 min 87 W/m 29,3 km/h (5 Bft) 95,74 %
07.10.2017 13:24 10,5 C 10,6 C 9,4 C 91 % 12 lf 1016,3 hPa 0,0 l/m 0 min 2 min 81 W/m 29,3 km/h (5 Bft) 95,74 %
07.10.2017 13:26 10,5 C 10,6 C 9,4 C 91 % 10 lf 1016,3 hPa 0,0 l/m 0 min 0 min 77 W/m 25,1 km/h (4 Bft) 87,23 %
07.10.2017 13:28 10,5 C 10,6 C 9,4 C 91 % 14 lf 1016,3 hPa 0,0 l/m 0 min 0 min 79 W/m 29,3 km/h (5 Bft) 97,83 %
07.10.2017 13:30 10,5 C 10,6 C 9,4 C 91 % 14 lf 1016,3 hPa 0,0 l/m 0 min 2 min 72 W/m 31,4 km/h (5 Bft) 97,87 %
07.10.2017 13:32 10,5 C 10,6 C 9,4 C 91 % 13 lf 1016,2 hPa 0,0 l/m 0 min 2 min 85 W/m 35,6 km/h (5 Bft) 97,87 %
07.10.2017 13:34 10,6 C 10,6 C 9,4 C 91 % 14 lf 1016,3 hPa 0,0 l/m 0 min 2 min 79 W/m 27,2 km/h (4 Bft) 95,74 %
07.10.2017 13:36 10,6 C 10,6 C 8,9 C 91 % 15 lf 1016,2 hPa 0,0 l/m 0 min 2 min 71 W/m 31,4 km/h (5 Bft) 95,74 %
07.10.2017 13:38 10,6 C 10,6 C 8,9 C 91 % 15 lf 1016,3 hPa 0,0 l/m 0 min 2 min 75 W/m 41,8 km/h (6 Bft) 97,87 %
07.10.2017 13:40 10,6 C 10,0 C 8,9 C 91 % 15 lf 1016,2 hPa 0,2 l/m 0 min 2 min 75 W/m 43,9 km/h (6 Bft) 95,65 %
07.10.2017 13:42 10,6 C 10,0 C 8,9 C 91 % 15 lf 1016,2 hPa 0,0 l/m 0 min 2 min 62 W/m 37,7 km/h (5 Bft) 91,49 %
07.10.2017 13:44 10,6 C 10,0 C 8,9 C 91 % 15 lf 1016,1 hPa 0,0 l/m 0 min 2 min 68 W/m 46,0 km/h (6 Bft) 91,49 %
07.10.2017 13:46 10,6 C 10,0 C 8,9 C 92 % 15 lf 1016,2 hPa 0,0 l/m 0 min 2 min 78 W/m 25,1 km/h (4 Bft) 93,62 %
07.10.2017 13:48 10,5 C 10,0 C 8,9 C 92 % 15 lf 1016,1 hPa 0,0 l/m 0 min 2 min 75 W/m 27,2 km/h (4 Bft) 93,62 %
07.10.2017 13:50 10,5 C 10,0 C 8,9 C 92 % 15 lf 1016,1 hPa 0,0 l/m 0 min 2 min 65 W/m 23,0 km/h (4 Bft) 91,49 %
07.10.2017 13:52 10,5 C 10,0 C 8,9 C 92 % 15 lf 1016,0 hPa 0,0 l/m 0 min 2 min 65 W/m 35,6 km/h (5 Bft) 91,30 %
07.10.2017 13:54 10,4 C 10,0 C 8,9 C 92 % 15 lf 1015,9 hPa 0,0 l/m 0 min 2 min 64 W/m 37,7 km/h (5 Bft) 91,49 %
07.10.2017 13:56 10,4 C 10,0 C 8,9 C 92 % 15 lf 1015,9 hPa 0,0 l/m 0 min 2 min 70 W/m 37,7 km/h (5 Bft) 89,36 %
07.10.2017 13:58 10,4 C 10,0 C 8,9 C 92 % 15 lf 1015,9 hPa 0,0 l/m 0 min 2 min 85 W/m 37,7 km/h (5 Bft) 95,74 %
07.10.2017 14:00 10,4 C 10,0 C 8,9 C 92 % 15 lf 1015,9 hPa 0,0 l/m 0 min 2 min 90 W/m 35,6 km/h (5 Bft) 89,36 %
07.10.2017 14:02 10,4 C 10,6 C 9,4 C 93 % 15 lf 1015,9 hPa 0,0 l/m 0 min 2 min 103 W/m 35,6 km/h (5 Bft) 91,49 %
07.10.2017 14:04 10,4 C 10,6 C 9,4 C 93 % 15 lf 1015,8 hPa 0,0 l/m 0 min 2 min 104 W/m 39,7 km/h (6 Bft) 86,96 %
07.10.2017 14:06 10,4 C 10,6 C 9,4 C 93 % 15 lf 1015,8 hPa 0,0 l/m 0 min 2 min 103 W/m 31,4 km/h (5 Bft) 95,74 %
07.10.2017 14:08 10,4 C 10,6 C 9,4 C 93 % 15 lf 1015,8 hPa 0,0 l/m 0 min 2 min 94 W/m 35,6 km/h (5 Bft) 85,11 %
07.10.2017 14:10 10,4 C 11,1 C 9,4 C 93 % 15 lf 1015,7 hPa 0,0 l/m 0 min 2 min 95 W/m 31,4 km/h (5 Bft) 91,49 %
07.10.2017 14:12 10,4 C 11,1 C 9,4 C 93 % 15 lf 1015,7 hPa 0,0 l/m 0 min 2 min 105 W/m 31,4 km/h (5 Bft) 87,23 %
07.10.2017 14:14 10,5 C 11,1 C 9,4 C 93 % 15 lf 1015,6 hPa 0,0 l/m 0 min 2 min 121 W/m 27,2 km/h (4 Bft) 91,30 %
07.10.2017 14:16 10,5 C 11,1 C 10,0 C 93 % 15 lf 1015,7 hPa 0,0 l/m 0 min 0 min 133 W/m 31,4 km/h (5 Bft) 87,23 %
07.10.2017 14:18 10,5 C 11,1 C 10,0 C 93 % 15 lf 1015,6 hPa 0,0 l/m 0 min 2 min 140 W/m 41,8 km/h (6 Bft) 91,49 %
07.10.2017 14:20 10,6 C 11,1 C 9,4 C 93 % 15 lf 1015,6 hPa 0,0 l/m 0 min 2 min 147 W/m 43,9 km/h (6 Bft) 85,11 %
07.10.2017 14:22 10,6 C 11,1 C 10,0 C 93 % 15 lf 1015,6 hPa 0,0 l/m 0 min 2 min 171 W/m 33,5 km/h (5 Bft) 89,36 %
07.10.2017 14:24 10,6 C 11,1 C 9,4 C 93 % 15 lf 1015,5 hPa 0,0 l/m 0 min 2 min 159 W/m 35,6 km/h (5 Bft) 89,36 %
07.10.2017 14:26 10,7 C 10,6 C 9,4 C 93 % 15 lf 1015,5 hPa 0,0 l/m 0 min 2 min 150 W/m 39,7 km/h (6 Bft) 91,30 %
07.10.2017 14:28 10,7 C 10,6 C 9,4 C 93 % 15 lf 1015,4 hPa 0,0 l/m 0 min 2 min 155 W/m 35,6 km/h (5 Bft) 93,62 %
07.10.2017 14:30 10,7 C 10,6 C 9,4 C 93 % 15 lf 1015,3 hPa 0,0 l/m 0 min 2 min 168 W/m 39,7 km/h (6 Bft) 95,74 %
07.10.2017 14:32 10,7 C 10,6 C 10,0 C 93 % 15 lf 1015,3 hPa 0,0 l/m 0 min 2 min 174 W/m 25,1 km/h (4 Bft) 97,87 %
07.10.2017 14:34 10,7 C 11,1 C 10,0 C 93 % 15 lf 1015,3 hPa 0,0 l/m 0 min 2 min 203 W/m 46,0 km/h (6 Bft) 97,87 %
07.10.2017 14:36 10,8 C 11,1 C 10,0 C 93 % 15 lf 1015,2 hPa 0,0 l/m 0 min 0 min 212 W/m 46,0 km/h (6 Bft) 97,87 %
07.10.2017 14:38 10,8 C 11,1 C 10,0 C 93 % 15 lf 1015,1 hPa 0,0 l/m 0 min 2 min 224 W/m 39,7 km/h (6 Bft) 97,83 %
07.10.2017 14:40 10,8 C 11,7 C 10,0 C 93 % 15 lf 1015,1 hPa 0,0 l/m 0 min 2 min 227 W/m 33,5 km/h (5 Bft) 97,87 %
07.10.2017 14:42 10,8 C 11,7 C 10,0 C 93 % 15 lf 1015,0 hPa 0,0 l/m 0 min 2 min 215 W/m 35,6 km/h (5 Bft) 93,62 %
07.10.2017 14:44 10,8 C 11,7 C 10,0 C 93 % 14 lf 1015,0 hPa 0,0 l/m 0 min 2 min 205 W/m 29,3 km/h (5 Bft) 97,87 %
07.10.2017 14:46 10,9 C 11,7 C 10,0 C 93 % 11 lf 1015,0 hPa 0,0 l/m 0 min 0 min 172 W/m 31,4 km/h (5 Bft) 97,87 %
07.10.2017 14:48 10,9 C 11,7 C 10,0 C 93 % 4 lf 1015,0 hPa 0,0 l/m 0 min 0 min 164 W/m 31,4 km/h (5 Bft) 97,87 %
07.10.2017 14:50 10,9 C 11,7 C 10,0 C 93 % 1 lf 1014,9 hPa 0,0 l/m 0 min 2 min 157 W/m 33,5 km/h (5 Bft) 97,83 %
07.10.2017 14:52 10,9 C 11,7 C 10,0 C 93 % 0 lf 1015,0 hPa 0,0 l/m 0 min 0 min 151 W/m 41,8 km/h (6 Bft) 97,87 %
07.10.2017 14:54 10,9 C 11,7 C 10,0 C 93 % 0 lf 1014,9 hPa 0,0 l/m 0 min 0 min 131 W/m 46,0 km/h (6 Bft) 100,00 %
07.10.2017 14:56 10,9 C 11,1 C 10,0 C 93 % 0 lf 1014,8 hPa 0,0 l/m 0 min 0 min 127 W/m 33,5 km/h (5 Bft) 97,87 %
07.10.2017 14:58 10,9 C 11,1 C 10,0 C 93 % 0 lf 1014,8 hPa 0,0 l/m 0 min 0 min 95 W/m 35,6 km/h (5 Bft) 97,87 %
07.10.2017 15:00 10,9 C 11,1 C 10,0 C 93 % 0 lf 1014,8 hPa 0,0 l/m 0 min 0 min 74 W/m 29,3 km/h (5 Bft) 95,74 %
07.10.2017 15:02 10,9 C 11,1 C 10,0 C 93 % 0 lf 1014,7 hPa 0,0 l/m 0 min 0 min 79 W/m 31,4 km/h (5 Bft) 100,00 %
07.10.2017 15:04 10,9 C 11,1 C 10,0 C 93 % 0 lf 1014,7 hPa 0,0 l/m 0 min 0 min 95 W/m 41,8 km/h (6 Bft) 97,87 %
07.10.2017 15:06 10,8 C 11,1 C 10,0 C 93 % 0 lf 1014,6 hPa 0,0 l/m 0 min 0 min 85 W/m 29,3 km/h (5 Bft) 95,74 %
07.10.2017 15:08 10,8 C 11,1 C 10,0 C 93 % 0 lf 1014,7 hPa 0,0 l/m 0 min 0 min 83 W/m 41,8 km/h (6 Bft) 91,49 %
07.10.2017 15:10 10,8 C 11,1 C 10,0 C 93 % 0 lf 1014,6 hPa 0,0 l/m 0 min 0 min 71 W/m 37,7 km/h (5 Bft) 100,00 %
07.10.2017 15:12 10,8 C 11,1 C 10,0 C 92 % 0 lf 1014,6 hPa 0,0 l/m 0 min 0 min 52 W/m 37,7 km/h (5 Bft) 95,74 %
07.10.2017 15:14 10,8 C 11,1 C 10,0 C 92 % 0 lf 1014,7 hPa 0,0 l/m 0 min 0 min 54 W/m 31,4 km/h (5 Bft) 100,00 %
07.10.2017 15:16 10,8 C 11,1 C 10,0 C 92 % 0 lf 1014,7 hPa 0,0 l/m 0 min 0 min 87 W/m 31,4 km/h (5 Bft) 97,87 %
07.10.2017 15:18 10,8 C 11,1 C 10,0 C 92 % 0 lf 1014,6 hPa 0,0 l/m 0 min 0 min 87 W/m 25,1 km/h (4 Bft) 100,00 %
07.10.2017 15:20 10,8 C 11,1 C 10,0 C 92 % 0 lf 1014,6 hPa 0,0 l/m 0 min 0 min 65 W/m 43,9 km/h (6 Bft) 97,87 %
07.10.2017 15:22 10,8 C 11,1 C 10,0 C 92 % 0 lf 1014,5 hPa 0,0 l/m 0 min 2 min 47 W/m 50,2 km/h (7 Bft) 100,00 %
07.10.2017 15:24 10,8 C 11,1 C 10,0 C 92 % 0 lf 1014,5 hPa 0,0 l/m 0 min 0 min 45 W/m 43,9 km/h (6 Bft) 97,87 %
07.10.2017 15:26 10,8 C 11,1 C 10,0 C 92 % 0 lf 1014,6 hPa 0,0 l/m 0 min 0 min 52 W/m 48,1 km/h (6 Bft) 100,00 %
07.10.2017 15:28 10,8 C 11,1 C 10,0 C 92 % 0 lf 1014,5 hPa 0,0 l/m 0 min 0 min 69 W/m 37,7 km/h (5 Bft) 100,00 %
07.10.2017 15:30 10,8 C 11,1 C 10,0 C 92 % 0 lf 1014,5 hPa 0,0 l/m 0 min 0 min 105 W/m 29,3 km/h (5 Bft) 100,00 %
07.10.2017 15:32 10,8 C 11,1 C 10,0 C 92 % 3 lf 1014,4 hPa 0,0 l/m 0 min 0 min 120 W/m 48,1 km/h (6 Bft) 100,00 %
07.10.2017 15:34 10,8 C 11,1 C 10,0 C 92 % 4 lf 1014,4 hPa 0,0 l/m 0 min 0 min 97 W/m 35,6 km/h (5 Bft) 97,87 %
07.10.2017 15:36 10,8 C 11,1 C 9,4 C 92 % 3 lf 1014,4 hPa 0,0 l/m 0 min 0 min 82 W/m 39,7 km/h (6 Bft) 100,00 %
07.10.2017 15:38 10,8 C 10,6 C 9,4 C 92 % 6 lf 1014,3 hPa 0,0 l/m 0 min 0 min 82 W/m 39,7 km/h (6 Bft) 100,00 %
07.10.2017 15:40 10,8 C 10,6 C 9,4 C 92 % 10 lf 1014,3 hPa 0,0 l/m 0 min 0 min 84 W/m 33,5 km/h (5 Bft) 95,74 %
07.10.2017 15:42 10,8 C 10,6 C 9,4 C 92 % 9 lf 1014,3 hPa 0,0 l/m 0 min 0 min 92 W/m 31,4 km/h (5 Bft) 100,00 %
07.10.2017 15:44 10,8 C 10,6 C 9,4 C 92 % 7 lf 1014,3 hPa 0,0 l/m 0 min 0 min 95 W/m 39,7 km/h (6 Bft) 97,87 %
07.10.2017 15:46 10,8 C 10,6 C 9,4 C 92 % 4 lf 1014,3 hPa 0,0 l/m 0 min 0 min 111 W/m 41,8 km/h (6 Bft) 100,00 %
07.10.2017 15:48 10,8 C 10,6 C 9,4 C 92 % 3 lf 1014,2 hPa 0,0 l/m 0 min 0 min 124 W/m 39,7 km/h (6 Bft) 97,83 %
07.10.2017 15:50 10,8 C 10,6 C 10,0 C 93 % 2 lf 1014,3 hPa 0,0 l/m 0 min 0 min 116 W/m 29,3 km/h (5 Bft) 100,00 %
07.10.2017 15:52 10,8 C 10,6 C 10,0 C 93 % 3 lf 1014,2 hPa 0,0 l/m 0 min 2 min 104 W/m 31,4 km/h (5 Bft) 95,74 %
07.10.2017 15:54 10,8 C 11,1 C 9,4 C 93 % 7 lf 1014,2 hPa 0,0 l/m 0 min 0 min 89 W/m 33,5 km/h (5 Bft) 97,87 %
07.10.2017 15:56 10,8 C 10,6 C 9,4 C 93 % 15 lf 1014,2 hPa 0,0 l/m 0 min 2 min 96 W/m 31,4 km/h (5 Bft) 97,87 %
07.10.2017 15:58 10,8 C 10,6 C 9,4 C 93 % 15 lf 1014,0 hPa 0,0 l/m 0 min 2 min 98 W/m 35,6 km/h (5 Bft) 95,74 %
07.10.2017 16:00 10,8 C 10,6 C 9,4 C 93 % 15 lf 1014,0 hPa 0,0 l/m 0 min 2 min 85 W/m 35,6 km/h (5 Bft) 97,83 %
07.10.2017 16:02 10,8 C 10,6 C 9,4 C 93 % 15 lf 1014,1 hPa 0,0 l/m 0 min 2 min 64 W/m 39,7 km/h (6 Bft) 97,87 %
07.10.2017 16:04 10,8 C 10,0 C 9,4 C 93 % 15 lf 1014,0 hPa 0,0 l/m 0 min 2 min 55 W/m 29,3 km/h (5 Bft) 97,87 %
07.10.2017 16:06 10,7 C 10,0 C 9,4 C 93 % 15 lf 1014,0 hPa 0,0 l/m 0 min 2 min 41 W/m 37,7 km/h (5 Bft) 93,62 %
07.10.2017 16:08 10,7 C 10,0 C 9,4 C 93 % 15 lf 1014,0 hPa 0,0 l/m 0 min 2 min 32 W/m 29,3 km/h (5 Bft) 93,62 %
07.10.2017 16:10 10,7 C 10,0 C 9,4 C 93 % 15 lf 1014,0 hPa 0,0 l/m 0 min 2 min 46 W/m 29,3 km/h (5 Bft) 97,87 %
07.10.2017 16:12 10,7 C 10,0 C 9,4 C 93 % 15 lf 1013,9 hPa 0,0 l/m 0 min 2 min 46 W/m 31,4 km/h (5 Bft) 95,65 %
07.10.2017 16:14 10,7 C 10,0 C 8,9 C 93 % 15 lf 1013,9 hPa 0,0 l/m 0 min 2 min 31 W/m 35,6 km/h (5 Bft) 95,74 %
07.10.2017 16:16 10,7 C 10,0 C 8,9 C 94 % 15 lf 1014,0 hPa 0,0 l/m 0 min 2 min 32 W/m 29,3 km/h (5 Bft) 93,62 %
07.10.2017 16:18 10,6 C 10,0 C 9,4 C 94 % 15 lf 1013,9 hPa 0,0 l/m 0 min 2 min 39 W/m 27,2 km/h (4 Bft) 97,87 %
07.10.2017 16:20 10,6 C 10,0 C 9,4 C 94 % 15 lf 1014,0 hPa 0,0 l/m 0 min 2 min 30 W/m 23,0 km/h (4 Bft) 93,62 %
07.10.2017 16:22 10,6 C 10,0 C 8,9 C 94 % 15 lf 1013,9 hPa 0,0 l/m 0 min 2 min 23 W/m 43,9 km/h (6 Bft) 91,49 %
07.10.2017 16:24 10,6 C 10,0 C 8,9 C 94 % 15 lf 1013,8 hPa 0,0 l/m 0 min 2 min 31 W/m 31,4 km/h (5 Bft) 95,65 %
07.10.2017 16:26 10,6 C 10,0 C 8,9 C 94 % 15 lf 1013,7 hPa 0,0 l/m 0 min 2 min 31 W/m 37,7 km/h (5 Bft) 97,87 %
07.10.2017 16:28 10,6 C 10,0 C 8,9 C 94 % 15 lf 1013,6 hPa 0,0 l/m 0 min 2 min 25 W/m 31,4 km/h (5 Bft) 97,87 %
07.10.2017 16:30 10,6 C 10,0 C 8,9 C 94 % 15 lf 1013,7 hPa 0,0 l/m 0 min 2 min 33 W/m 33,5 km/h (5 Bft) 97,87 %
07.10.2017 16:32 10,5 C 10,0 C 8,9 C 94 % 15 lf 1013,7 hPa 0,0 l/m 0 min 2 min 36 W/m 27,2 km/h (4 Bft) 91,49 %
07.10.2017 16:34 10,5 C 10,0 C 8,9 C 94 % 15 lf 1013,7 hPa 0,0 l/m 0 min 2 min 23 W/m 39,7 km/h (6 Bft) 95,74 %
07.10.2017 16:36 10,5 C 10,0 C 8,9 C 94 % 15 lf 1013,6 hPa 0,0 l/m 0 min 2 min 19 W/m 33,5 km/h (5 Bft) 95,65 %
07.10.2017 16:38 10,5 C 10,0 C 8,9 C 94 % 15 lf 1013,5 hPa 0,0 l/m 0 min 2 min 22 W/m 29,3 km/h (5 Bft) 91,49 %
07.10.2017 16:40 10,5 C 10,0 C 8,9 C 94 % 15 lf 1013,5 hPa 0,0 l/m 0 min 0 min 20 W/m 35,6 km/h (5 Bft) 97,87 %
07.10.2017 16:42 10,5 C 10,0 C 8,9 C 94 % 15 lf 1013,5 hPa 0,0 l/m 0 min 0 min 22 W/m 31,4 km/h (5 Bft) 95,74 %
07.10.2017 16:44 10,5 C 10,0 C 8,9 C 94 % 15 lf 1013,4 hPa 0,0 l/m 0 min 0 min 19 W/m 35,6 km/h (5 Bft) 91,49 %
07.10.2017 16:46 10,5 C 10,0 C 8,9 C 94 % 15 lf 1013,5 hPa 0,0 l/m 0 min 2 min 20 W/m 33,5 km/h (5 Bft) 93,62 %
07.10.2017 16:48 10,6 C 10,0 C 8,9 C 95 % 15 lf 1013,3 hPa 0,0 l/m 0 min 2 min 31 W/m 31,4 km/h (5 Bft) 95,65 %
07.10.2017 16:50 10,6 C 10,0 C 9,4 C 95 % 15 lf 1013,3 hPa 0,0 l/m 0 min 2 min 24 W/m 37,7 km/h (5 Bft) 93,62 %
07.10.2017 16:52 10,6 C 10,0 C 9,4 C 95 % 15 lf 1013,3 hPa 0,0 l/m 0 min 2 min 19 W/m 29,3 km/h (5 Bft) 95,74 %
07.10.2017 16:54 10,6 C 10,0 C 9,4 C 95 % 15 lf 1013,3 hPa 0,0 l/m 0 min 2 min 22 W/m 27,2 km/h (4 Bft) 95,74 %
07.10.2017 16:56 10,6 C 10,0 C 8,9 C 95 % 15 lf 1013,2 hPa 0,2 l/m 0 min 2 min 24 W/m 27,2 km/h (4 Bft) 93,62 %
07.10.2017 16:58 10,6 C 10,0 C 8,9 C 95 % 15 lf 1013,2 hPa 0,0 l/m 0 min 2 min 26 W/m 37,7 km/h (5 Bft) 93,48 %
07.10.2017 17:00 10,6 C 10,0 C 8,9 C 95 % 15 lf 1013,1 hPa 0,0 l/m 0 min 2 min 24 W/m 27,2 km/h (4 Bft) 91,49 %
07.10.2017 17:02 10,6 C 10,0 C 8,9 C 95 % 15 lf 1013,1 hPa 0,0 l/m 0 min 2 min 16 W/m 35,6 km/h (5 Bft) 89,36 %
07.10.2017 17:04 10,6 C 10,0 C 8,9 C 95 % 15 lf 1013,2 hPa 0,0 l/m 0 min 0 min 16 W/m 33,5 km/h (5 Bft) 93,62 %
07.10.2017 17:06 10,6 C 10,0 C 8,9 C 95 % 15 lf 1013,1 hPa 0,0 l/m 0 min 2 min 22 W/m 31,4 km/h (5 Bft) 89,36 %
07.10.2017 17:08 10,6 C 10,0 C 8,9 C 95 % 15 lf 1012,9 hPa 0,0 l/m 0 min 2 min 18 W/m 41,8 km/h (6 Bft) 91,49 %
07.10.2017 17:10 10,6 C 10,0 C 8,9 C 95 % 15 lf 1013,1 hPa 0,0 l/m 0 min 2 min 15 W/m 35,6 km/h (5 Bft) 93,48 %
07.10.2017 17:12 10,6 C 10,0 C 8,9 C 95 % 15 lf 1013,0 hPa 0,0 l/m 0 min 0 min 22 W/m 23,0 km/h (4 Bft) 95,74 %
07.10.2017 17:14 10,6 C 10,0 C 8,9 C 95 % 15 lf 1013,0 hPa 0,0 l/m 0 min 0 min 27 W/m 29,3 km/h (5 Bft) 95,74 %
07.10.2017 17:16 10,6 C 10,0 C 8,9 C 95 % 15 lf 1013,0 hPa 0,0 l/m 0 min 0 min 18 W/m 23,0 km/h (4 Bft) 95,74 %
07.10.2017 17:18 10,5 C 10,0 C 8,9 C 95 % 15 lf 1013,0 hPa 0,0 l/m 0 min 2 min 14 W/m 27,2 km/h (4 Bft) 93,62 %
07.10.2017 17:20 10,5 C 10,0 C 8,9 C 95 % 15 lf 1013,0 hPa 0,0 l/m 0 min 2 min 21 W/m 31,4 km/h (5 Bft) 93,62 %
07.10.2017 17:22 10,5 C 10,0 C 8,9 C 95 % 15 lf 1012,8 hPa 0,0 l/m 0 min 0 min 28 W/m 33,5 km/h (5 Bft) 95,65 %
07.10.2017 17:24 10,5 C 10,0 C 8,9 C 95 % 15 lf 1012,8 hPa 0,0 l/m 0 min 2 min 22 W/m 27,2 km/h (4 Bft) 95,74 %
07.10.2017 17:26 10,5 C 10,0 C 8,9 C 95 % 15 lf 1012,8 hPa 0,0 l/m 0 min 2 min 19 W/m 27,2 km/h (4 Bft) 95,74 %
07.10.2017 17:28 10,5 C 10,0 C 8,9 C 95 % 15 lf 1012,8 hPa 0,0 l/m 0 min 0 min 20 W/m 27,2 km/h (4 Bft) 95,74 %
07.10.2017 17:30 10,5 C 10,0 C 8,9 C 96 % 15 lf 1012,8 hPa 0,0 l/m 0 min 0 min 19 W/m 33,5 km/h (5 Bft) 93,62 %
07.10.2017 17:32 10,5 C 10,0 C 8,9 C 96 % 15 lf 1012,8 hPa 0,0 l/m 0 min 2 min 17 W/m 33,5 km/h (5 Bft) 97,87 %
07.10.2017 17:34 10,5 C 10,0 C 8,9 C 96 % 15 lf 1012,8 hPa 0,0 l/m 0 min 0 min 15 W/m 27,2 km/h (4 Bft) 95,65 %
07.10.2017 17:36 10,5 C 10,0 C 8,9 C 96 % 15 lf 1012,9 hPa 0,0 l/m 0 min 2 min 18 W/m 39,7 km/h (6 Bft) 97,87 %
07.10.2017 17:38 10,5 C 10,0 C 8,9 C 95 % 15 lf 1012,9 hPa 0,0 l/m 0 min 0 min 15 W/m 37,7 km/h (5 Bft) 97,87 %
07.10.2017 17:40 10,5 C 10,0 C 8,9 C 96 % 15 lf 1012,8 hPa 0,0 l/m 0 min 2 min 13 W/m 35,6 km/h (5 Bft) 93,62 %
07.10.2017 17:42 10,5 C 10,0 C 8,9 C 96 % 15 lf 1012,7 hPa 0,0 l/m 0 min 0 min 13 W/m 37,7 km/h (5 Bft) 95,74 %
07.10.2017 17:44 10,5 C 10,0 C 8,9 C 96 % 15 lf 1012,7 hPa 0,0 l/m 0 min 0 min 14 W/m 29,3 km/h (5 Bft) 100,00 %
07.10.2017 17:46 10,5 C 10,0 C 8,9 C 96 % 15 lf 1012,8 hPa 0,0 l/m 0 min 0 min 12 W/m 33,5 km/h (5 Bft) 100,00 %
07.10.2017 17:48 10,5 C 10,0 C 8,9 C 96 % 15 lf 1012,8 hPa 0,0 l/m 0 min 0 min 12 W/m 29,3 km/h (5 Bft) 100,00 %
07.10.2017 17:50 10,5 C 10,0 C 8,9 C 96 % 15 lf 1012,8 hPa 0,0 l/m 0 min 0 min 13 W/m 18,8 km/h (3 Bft) 97,87 %
07.10.2017 17:52 10,5 C 10,0 C 8,9 C 96 % 15 lf 1012,8 hPa 0,0 l/m 0 min 0 min 12 W/m 25,1 km/h (4 Bft) 95,74 %
07.10.2017 17:54 10,5 C 10,0 C 8,9 C 96 % 15 lf 1012,8 hPa 0,0 l/m 0 min 0 min 13 W/m 33,5 km/h (5 Bft) 97,87 %
07.10.2017 17:56 10,5 C 10,0 C 8,9 C 96 % 15 lf 1012,7 hPa 0,0 l/m 0 min 0 min 14 W/m 33,5 km/h (5 Bft) 93,62 %
07.10.2017 17:58 10,5 C 10,0 C 8,9 C 96 % 15 lf 1012,8 hPa 0,0 l/m 0 min 0 min 14 W/m 35,6 km/h (5 Bft) 97,83 %
07.10.2017 18:00 10,5 C 10,0 C 8,9 C 96 % 15 lf 1012,8 hPa 0,0 l/m 0 min 0 min 13 W/m 31,4 km/h (5 Bft) 93,62 %
07.10.2017 18:02 10,5 C 10,0 C 8,9 C 96 % 15 lf 1012,7 hPa 0,0 l/m 0 min 0 min 12 W/m 25,1 km/h (4 Bft) 97,87 %
07.10.2017 18:04 10,5 C 10,0 C 8,9 C 96 % 15 lf 1012,6 hPa 0,0 l/m 0 min 0 min 13 W/m 33,5 km/h (5 Bft) 95,74 %
07.10.2017 18:06 10,5 C 10,0 C 8,9 C 96 % 15 lf 1012,5 hPa 0,0 l/m 0 min 0 min 14 W/m 31,4 km/h (5 Bft) 97,87 %
07.10.2017 18:10 10,5 C 10,0 C 8,9 C 96 % 15 lf 1012,5 hPa 0,0 l/m 0 min 0 min 15 W/m 41,8 km/h (6 Bft) 97,75 %
07.10.2017 18:12 10,5 C 10,0 C 8,9 C 96 % 15 lf 1012,5 hPa 0,0 l/m 0 min 0 min 14 W/m 35,6 km/h (5 Bft) 96,08 %
07.10.2017 18:14 10,5 C 10,0 C 8,9 C 96 % 15 lf 1012,6 hPa 0,0 l/m 0 min 0 min 10 W/m 31,4 km/h (5 Bft) 91,49 %
07.10.2017 18:16 10,5 C 10,0 C 8,9 C 96 % 15 lf 1012,6 hPa 0,0 l/m 0 min 0 min 8 W/m 46,0 km/h (6 Bft) 97,87 %
07.10.2017 18:18 10,5 C 10,0 C 8,9 C 96 % 15 lf 1012,5 hPa 0,0 l/m 0 min 0 min 7 W/m 39,7 km/h (6 Bft) 97,87 %
07.10.2017 18:20 10,5 C 10,0 C 8,9 C 96 % 15 lf 1012,6 hPa 0,0 l/m 0 min 2 min 8 W/m 25,1 km/h (4 Bft) 100,00 %
07.10.2017 18:22 10,5 C 10,0 C 8,9 C 96 % 15 lf 1012,6 hPa 0,0 l/m 0 min 0 min 7 W/m 31,4 km/h (5 Bft) 100,00 %
07.10.2017 18:24 10,5 C 10,0 C 8,9 C 96 % 15 lf 1012,5 hPa 0,0 l/m 0 min 0 min 7 W/m 35,6 km/h (5 Bft) 100,00 %
07.10.2017 18:26 10,6 C 10,0 C 8,9 C 96 % 15 lf 1012,7 hPa 0,0 l/m 0 min 0 min 6 W/m 31,4 km/h (5 Bft) 100,00 %
07.10.2017 18:28 10,6 C 10,0 C 8,9 C 96 % 15 lf 1012,6 hPa 0,0 l/m 0 min 2 min 5 W/m 27,2 km/h (4 Bft) 97,87 %
07.10.2017 18:30 10,6 C 10,0 C 8,9 C 96 % 15 lf 1012,7 hPa 0,0 l/m 0 min 2 min 5 W/m 37,7 km/h (5 Bft) 97,87 %
07.10.2017 18:32 10,6 C 10,0 C 8,9 C 96 % 15 lf 1012,5 hPa 0,0 l/m 0 min 2 min 6 W/m 27,2 km/h (4 Bft) 95,65 %
07.10.2017 18:34 10,6 C 10,0 C 8,9 C 96 % 15 lf 1012,5 hPa 0,0 l/m 0 min 2 min 5 W/m 27,2 km/h (4 Bft) 100,00 %
07.10.2017 18:36 10,6 C 10,0 C 8,9 C 96 % 15 lf 1012,4 hPa 0,0 l/m 0 min 2 min 5 W/m 27,2 km/h (4 Bft) 100,00 %
07.10.2017 18:38 10,6 C 10,0 C 8,9 C 96 % 15 lf 1012,4 hPa 0,0 l/m 0 min 0 min 5 W/m 25,1 km/h (4 Bft) 97,87 %
07.10.2017 18:40 10,6 C 10,0 C 8,9 C 96 % 15 lf 1012,3 hPa 0,0 l/m 0 min 0 min 5 W/m 41,8 km/h (6 Bft) 97,87 %
07.10.2017 18:42 10,6 C 10,0 C 8,9 C 96 % 15 lf 1012,3 hPa 0,0 l/m 0 min 2 min 5 W/m 37,7 km/h (5 Bft) 100,00 %
07.10.2017 18:44 10,6 C 10,0 C 8,9 C 96 % 15 lf 1012,3 hPa 0,0 l/m 0 min 2 min 3 W/m 25,1 km/h (4 Bft) 100,00 %
07.10.2017 18:46 10,6 C 10,0 C 8,9 C 96 % 15 lf 1012,3 hPa 0,0 l/m 0 min 0 min 0 W/m 27,2 km/h (4 Bft) 97,87 %
07.10.2017 18:48 10,6 C 10,0 C 8,9 C 96 % 15 lf 1012,2 hPa 0,0 l/m 0 min 2 min 0 W/m 27,2 km/h (4 Bft) 100,00 %
07.10.2017 18:50 10,6 C 10,0 C 8,9 C 96 % 15 lf 1012,2 hPa 0,0 l/m 0 min 0 min 0 W/m 31,4 km/h (5 Bft) 100,00 %
07.10.2017 18:52 10,5 C 10,0 C 8,9 C 96 % 15 lf 1012,1 hPa 0,0 l/m 0 min 2 min 0 W/m 31,4 km/h (5 Bft) 100,00 %
07.10.2017 18:54 10,6 C 10,0 C 8,9 C 96 % 15 lf 1012,1 hPa 0,0 l/m 0 min 0 min 0 W/m 31,4 km/h (5 Bft) 100,00 %
07.10.2017 18:56 10,6 C 10,0 C 8,9 C 96 % 15 lf 1012,2 hPa 0,0 l/m 0 min 0 min 0 W/m 27,2 km/h (4 Bft) 97,83 %
07.10.2017 18:58 10,6 C 10,0 C 8,9 C 96 % 15 lf 1012,1 hPa 0,0 l/m 0 min 0 min 0 W/m 33,5 km/h (5 Bft) 100,00 %
07.10.2017 19:00 10,6 C 10,0 C 8,9 C 96 % 15 lf 1012,1 hPa 0,0 l/m 0 min 2 min 0 W/m 37,7 km/h (5 Bft) 100,00 %
07.10.2017 19:02 10,6 C 10,0 C 8,9 C 96 % 15 lf 1012,3 hPa 0,0 l/m 0 min 2 min 0 W/m 25,1 km/h (4 Bft) 97,87 %
07.10.2017 19:04 10,6 C 10,0 C 8,9 C 96 % 15 lf 1012,1 hPa 0,0 l/m 0 min 0 min 0 W/m 27,2 km/h (4 Bft) 100,00 %
07.10.2017 19:06 10,6 C 10,0 C 8,9 C 96 % 15 lf 1012,2 hPa 0,0 l/m 0 min 0 min 0 W/m 27,2 km/h (4 Bft) 100,00 %
07.10.2017 19:08 10,6 C 10,0 C 8,9 C 96 % 15 lf 1012,1 hPa 0,0 l/m 0 min 2 min 0 W/m 29,3 km/h (5 Bft) 100,00 %
07.10.2017 19:10 10,6 C 10,0 C 8,9 C 96 % 15 lf 1012,2 hPa 0,0 l/m 0 min 0 min 0 W/m 25,1 km/h (4 Bft) 97,87 %
07.10.2017 19:12 10,6 C 10,0 C 9,4 C 96 % 15 lf 1012,2 hPa 0,0 l/m 0 min 2 min 0 W/m 35,6 km/h (5 Bft) 100,00 %
07.10.2017 19:14 10,6 C 10,0 C 9,4 C 96 % 15 lf 1012,2 hPa 0,0 l/m 0 min 2 min 0 W/m 33,5 km/h (5 Bft) 100,00 %
07.10.2017 19:16 10,6 C 10,6 C 9,4 C 96 % 15 lf 1012,1 hPa 0,0 l/m 0 min 0 min 0 W/m 29,3 km/h (5 Bft) 97,87 %
07.10.2017 19:18 10,6 C 10,6 C 9,4 C 96 % 15 lf 1012,2 hPa 0,0 l/m 0 min 0 min 0 W/m 33,5 km/h (5 Bft) 100,00 %
07.10.2017 19:20 10,6 C 10,6 C 9,4 C 96 % 15 lf 1012,1 hPa 0,0 l/m 0 min 2 min 0 W/m 27,2 km/h (4 Bft) 97,83 %
07.10.2017 19:22 10,7 C 10,6 C 9,4 C 96 % 15 lf 1012,1 hPa 0,0 l/m 0 min 0 min 0 W/m 33,5 km/h (5 Bft) 95,74 %
07.10.2017 19:24 10,7 C 10,6 C 9,4 C 96 % 15 lf 1012,0 hPa 0,0 l/m 0 min 2 min 0 W/m 27,2 km/h (4 Bft) 100,00 %
07.10.2017 19:26 10,7 C 10,6 C 9,4 C 96 % 14 lf 1012,1 hPa 0,0 l/m 0 min 0 min 0 W/m 25,1 km/h (4 Bft) 100,00 %
07.10.2017 19:28 10,7 C 10,6 C 9,4 C 96 % 13 lf 1012,1 hPa 0,0 l/m 0 min 0 min 0 W/m 27,2 km/h (4 Bft) 95,74 %
07.10.2017 19:30 10,7 C 10,6 C 9,4 C 96 % 12 lf 1012,0 hPa 0,0 l/m 0 min 0 min 0 W/m 37,7 km/h (5 Bft) 97,87 %
07.10.2017 19:32 10,7 C 10,6 C 9,4 C 96 % 10 lf 1012,0 hPa 0,0 l/m 0 min 0 min 0 W/m 29,3 km/h (5 Bft) 95,65 %
07.10.2017 19:34 10,7 C 10,6 C 9,4 C 96 % 8 lf 1011,9 hPa 0,0 l/m 0 min 0 min 0 W/m 29,3 km/h (5 Bft) 97,87 %
07.10.2017 19:36 10,7 C 10,6 C 9,4 C 96 % 4 lf 1011,9 hPa 0,0 l/m 0 min 0 min 0 W/m 31,4 km/h (5 Bft) 95,74 %
07.10.2017 19:38 10,7 C 10,6 C 9,4 C 96 % 3 lf 1011,9 hPa 0,0 l/m 0 min 0 min 0 W/m 29,3 km/h (5 Bft) 95,74 %
07.10.2017 19:40 10,7 C 10,6 C 9,4 C 96 % 2 lf 1012,0 hPa 0,0 l/m 0 min 0 min 0 W/m 37,7 km/h (5 Bft) 91,49 %
07.10.2017 19:42 10,7 C 10,6 C 9,4 C 96 % 1 lf 1011,9 hPa 0,0 l/m 0 min 0 min 0 W/m 39,7 km/h (6 Bft) 93,62 %
07.10.2017 19:44 10,7 C 10,6 C 9,4 C 96 % 0 lf 1011,8 hPa 0,0 l/m 0 min 0 min 0 W/m 33,5 km/h (5 Bft) 93,48 %
07.10.2017 19:46 10,7 C 10,6 C 9,4 C 96 % 0 lf 1011,8 hPa 0,0 l/m 0 min 0 min 0 W/m 31,4 km/h (5 Bft) 91,49 %
07.10.2017 19:48 10,7 C 10,6 C 9,4 C 96 % 1 lf 1011,8 hPa 0,0 l/m 0 min 2 min 0 W/m 37,7 km/h (5 Bft) 93,62 %
07.10.2017 19:50 10,7 C 10,6 C 9,4 C 96 % 0 lf 1011,8 hPa 0,0 l/m 0 min 2 min 0 W/m 25,1 km/h (4 Bft) 89,36 %
07.10.2017 19:52 10,7 C 10,6 C 9,4 C 96 % 1 lf 1011,8 hPa 0,0 l/m 0 min 2 min 0 W/m 39,7 km/h (6 Bft) 91,49 %
07.10.2017 19:54 10,7 C 10,6 C 9,4 C 95 % 3 lf 1011,6 hPa 0,0 l/m 0 min 2 min 0 W/m 31,4 km/h (5 Bft) 93,62 %
07.10.2017 19:56 10,8 C 10,6 C 9,4 C 95 % 15 lf 1011,6 hPa 0,0 l/m 0 min 2 min 0 W/m 29,3 km/h (5 Bft) 89,13 %
07.10.2017 19:58 10,8 C 10,6 C 9,4 C 95 % 15 lf 1011,6 hPa 0,0 l/m 0 min 2 min 0 W/m 27,2 km/h (4 Bft) 91,49 %
07.10.2017 20:00 10,8 C 10,6 C 9,4 C 95 % 15 lf 1011,6 hPa 0,2 l/m 0 min 2 min 0 W/m 39,7 km/h (6 Bft) 91,49 %
07.10.2017 20:02 10,8 C 10,6 C 8,9 C 95 % 15 lf 1011,7 hPa 0,0 l/m 0 min 2 min 0 W/m 41,8 km/h (6 Bft) 89,36 %
07.10.2017 20:04 10,8 C 10,0 C 9,4 C 95 % 15 lf 1011,7 hPa 0,0 l/m 0 min 2 min 0 W/m 39,7 km/h (6 Bft) 91,49 %
07.10.2017 20:06 10,7 C 10,0 C 8,9 C 95 % 15 lf 1011,7 hPa 0,0 l/m 0 min 2 min 0 W/m 31,4 km/h (5 Bft) 91,30 %
07.10.2017 20:08 10,8 C 10,0 C 8,9 C 95 % 15 lf 1011,6 hPa 0,0 l/m 0 min 2 min 0 W/m 31,4 km/h (5 Bft) 89,36 %
07.10.2017 20:10 10,8 C 10,0 C 8,9 C 95 % 15 lf 1011,5 hPa 0,0 l/m 0 min 2 min 0 W/m 29,3 km/h (5 Bft) 91,49 %
07.10.2017 20:12 10,7 C 10,0 C 8,9 C 95 % 15 lf 1011,5 hPa 0,0 l/m 0 min 2 min 0 W/m 39,7 km/h (6 Bft) 91,49 %
07.10.2017 20:14 10,7 C 10,0 C 8,9 C 95 % 15 lf 1011,4 hPa 0,0 l/m 0 min 2 min 0 W/m 23,0 km/h (4 Bft) 89,36 %
07.10.2017 20:16 10,7 C 10,0 C 8,9 C 95 % 15 lf 1011,4 hPa 0,0 l/m 0 min 2 min 0 W/m 33,5 km/h (5 Bft) 95,74 %
07.10.2017 20:18 10,7 C 10,0 C 8,9 C 95 % 15 lf 1011,5 hPa 0,0 l/m 0 min 2 min 0 W/m 35,6 km/h (5 Bft) 95,65 %
07.10.2017 20:20 10,7 C 10,0 C 8,9 C 95 % 15 lf 1011,4 hPa 0,0 l/m 0 min 2 min 0 W/m 25,1 km/h (4 Bft) 93,62 %
07.10.2017 20:22 10,7 C 10,0 C 8,9 C 95 % 15 lf 1011,5 hPa 0,2 l/m 0 min 2 min 0 W/m 37,7 km/h (5 Bft) 93,62 %
07.10.2017 20:24 10,8 C 10,0 C 8,9 C 95 % 15 lf 1011,4 hPa 0,0 l/m 0 min 2 min 0 W/m 31,4 km/h (5 Bft) 93,62 %
07.10.2017 20:26 10,7 C 10,0 C 8,9 C 95 % 15 lf 1011,4 hPa 0,0 l/m 0 min 2 min 0 W/m 25,1 km/h (4 Bft) 95,74 %
07.10.2017 20:28 10,7 C 10,0 C 8,9 C 95 % 15 lf 1011,4 hPa 0,0 l/m 0 min 2 min 0 W/m 23,0 km/h (4 Bft) 93,62 %
07.10.2017 20:30 10,7 C 10,0 C 8,9 C 95 % 15 lf 1011,4 hPa 0,2 l/m 0 min 2 min 0 W/m 31,4 km/h (5 Bft) 95,65 %
07.10.2017 20:32 10,7 C 10,0 C 8,9 C 95 % 15 lf 1011,4 hPa 0,0 l/m 0 min 2 min 0 W/m 31,4 km/h (5 Bft) 93,62 %
07.10.2017 20:34 10,7 C 10,0 C 8,9 C 95 % 15 lf 1011,4 hPa 0,2 l/m 0 min 2 min 0 W/m 29,3 km/h (5 Bft) 97,87 %
07.10.2017 20:36 10,7 C 10,0 C 8,9 C 95 % 15 lf 1011,4 hPa 0,0 l/m 0 min 2 min 0 W/m 27,2 km/h (4 Bft) 95,74 %
07.10.2017 20:38 10,7 C 10,0 C 8,9 C 95 % 15 lf 1011,3 hPa 0,2 l/m 0 min 2 min 0 W/m 37,7 km/h (5 Bft) 97,87 %
07.10.2017 20:40 10,7 C 10,0 C 8,9 C 96 % 15 lf 1011,3 hPa 0,2 l/m 0 min 2 min 0 W/m 31,4 km/h (5 Bft) 97,87 %
07.10.2017 20:42 10,7 C 10,0 C 8,9 C 96 % 15 lf 1011,3 hPa 0,2 l/m 0 min 2 min 0 W/m 27,2 km/h (4 Bft) 97,83 %
07.10.2017 20:44 10,7 C 10,0 C 8,9 C 96 % 15 lf 1011,3 hPa 0,0 l/m 0 min 2 min 0 W/m 33,5 km/h (5 Bft) 95,74 %
07.10.2017 20:46 10,6 C 10,0 C 8,9 C 96 % 15 lf 1011,3 hPa 0,0 l/m 0 min 2 min 0 W/m 35,6 km/h (5 Bft) 97,87 %
07.10.2017 20:48 10,6 C 10,0 C 8,9 C 96 % 15 lf 1011,4 hPa 0,2 l/m 0 min 2 min 0 W/m 41,8 km/h (6 Bft) 95,74 %
07.10.2017 20:50 10,6 C 10,0 C 8,9 C 96 % 15 lf 1011,3 hPa 0,0 l/m 0 min 2 min 0 W/m 37,7 km/h (5 Bft) 97,87 %
07.10.2017 20:52 10,6 C 10,0 C 8,9 C 96 % 15 lf 1011,2 hPa 0,0 l/m 0 min 2 min 0 W/m 23,0 km/h (4 Bft) 97,87 %
07.10.2017 20:54 10,6 C 10,0 C 8,9 C 96 % 15 lf 1011,3 hPa 0,0 l/m 0 min 2 min 0 W/m 27,2 km/h (4 Bft) 97,83 %
07.10.2017 20:56 10,6 C 10,0 C 8,9 C 96 % 15 lf 1011,2 hPa 0,2 l/m 0 min 2 min 0 W/m 33,5 km/h (5 Bft) 95,74 %
07.10.2017 20:58 10,6 C 10,0 C 8,9 C 96 % 15 lf 1011,3 hPa 0,0 l/m 0 min 2 min 0 W/m 27,2 km/h (4 Bft) 97,87 %
07.10.2017 21:00 10,6 C 10,0 C 8,9 C 96 % 15 lf 1011,3 hPa 0,0 l/m 0 min 2 min 0 W/m 33,5 km/h (5 Bft) 89,36 %
07.10.2017 21:02 10,6 C 10,0 C 8,9 C 96 % 15 lf 1011,3 hPa 0,2 l/m 0 min 2 min 0 W/m 29,3 km/h (5 Bft) 95,74 %
07.10.2017 21:04 10,6 C 10,0 C 8,9 C 96 % 15 lf 1011,3 hPa 0,2 l/m 0 min 2 min 0 W/m 37,7 km/h (5 Bft) 95,74 %
07.10.2017 21:06 10,6 C 10,0 C 8,9 C 96 % 15 lf 1011,3 hPa 0,0 l/m 0 min 2 min 0 W/m 27,2 km/h (4 Bft) 100,00 %
07.10.2017 21:08 10,6 C 10,0 C 8,9 C 96 % 15 lf 1011,3 hPa 0,0 l/m 0 min 2 min 0 W/m 31,4 km/h (5 Bft) 100,00 %
07.10.2017 21:10 10,6 C 10,0 C 8,9 C 96 % 15 lf 1011,3 hPa 0,0 l/m 0 min 2 min 0 W/m 29,3 km/h (5 Bft) 100,00 %
07.10.2017 21:12 10,6 C 10,0 C 8,9 C 96 % 15 lf 1011,3 hPa 0,0 l/m 0 min 0 min 0 W/m 29,3 km/h (5 Bft) 100,00 %
07.10.2017 21:14 10,6 C 10,0 C 8,9 C 96 % 15 lf 1011,2 hPa 0,0 l/m 0 min 0 min 0 W/m 20,9 km/h (4 Bft) 97,87 %
07.10.2017 21:16 10,6 C 10,0 C 8,9 C 96 % 15 lf 1011,2 hPa 0,0 l/m 0 min 0 min 0 W/m 39,7 km/h (6 Bft) 100,00 %
07.10.2017 21:18 10,6 C 10,0 C 8,9 C 96 % 15 lf 1011,2 hPa 0,0 l/m 0 min 0 min 0 W/m 31,4 km/h (5 Bft) 97,83 %
07.10.2017 21:20 10,5 C 10,0 C 8,9 C 96 % 15 lf 1011,3 hPa 0,0 l/m 0 min 0 min 0 W/m 43,9 km/h (6 Bft) 95,74 %
07.10.2017 21:22 10,5 C 10,0 C 8,9 C 96 % 15 lf 1011,2 hPa 0,0 l/m 0 min 0 min 0 W/m 35,6 km/h (5 Bft) 97,87 %
07.10.2017 21:24 10,5 C 10,0 C 8,9 C 96 % 15 lf 1011,2 hPa 0,0 l/m 0 min 0 min 0 W/m 27,2 km/h (4 Bft) 100,00 %
07.10.2017 21:26 10,5 C 10,0 C 8,9 C 96 % 15 lf 1011,2 hPa 0,0 l/m 0 min 0 min 0 W/m 25,1 km/h (4 Bft) 97,87 %
07.10.2017 21:28 10,5 C 10,0 C 8,9 C 96 % 15 lf 1011,3 hPa 0,0 l/m 0 min 0 min 0 W/m 25,1 km/h (4 Bft) 97,87 %
07.10.2017 21:30 10,4 C 10,0 C 8,9 C 96 % 15 lf 1011,2 hPa 0,0 l/m 0 min 2 min 0 W/m 29,3 km/h (5 Bft) 97,83 %
07.10.2017 21:32 10,4 C 10,0 C 8,9 C 96 % 15 lf 1011,2 hPa 0,0 l/m 0 min 2 min 0 W/m 29,3 km/h (5 Bft) 100,00 %
07.10.2017 21:34 10,4 C 10,0 C 8,9 C 96 % 15 lf 1011,2 hPa 0,0 l/m 0 min 0 min 0 W/m 27,2 km/h (4 Bft) 100,00 %
07.10.2017 21:36 10,4 C 10,0 C 8,9 C 96 % 15 lf 1011,2 hPa 0,0 l/m 0 min 2 min 0 W/m 29,3 km/h (5 Bft) 97,87 %
07.10.2017 21:38 10,4 C 10,0 C 8,9 C 96 % 15 lf 1011,3 hPa 0,0 l/m 0 min 2 min 0 W/m 35,6 km/h (5 Bft) 93,62 %
07.10.2017 21:40 10,4 C 10,0 C 8,9 C 96 % 15 lf 1011,1 hPa 0,0 l/m 0 min 2 min 0 W/m 25,1 km/h (4 Bft) 95,74 %
07.10.2017 21:42 10,4 C 10,0 C 8,9 C 96 % 15 lf 1011,2 hPa 0,0 l/m 0 min 2 min 0 W/m 35,6 km/h (5 Bft) 97,83 %
07.10.2017 21:44 10,4 C 10,0 C 8,9 C 96 % 15 lf 1011,1 hPa 0,0 l/m 0 min 2 min 0 W/m 27,2 km/h (4 Bft) 97,87 %
07.10.2017 21:46 10,4 C 10,0 C 8,9 C 96 % 15 lf 1011,1 hPa 0,0 l/m 0 min 2 min 0 W/m 33,5 km/h (5 Bft) 97,87 %
07.10.2017 21:48 10,4 C 10,0 C 8,9 C 97 % 15 lf 1011,1 hPa 0,0 l/m 0 min 2 min 0 W/m 27,2 km/h (4 Bft) 97,87 %
07.10.2017 21:50 10,4 C 9,4 C 8,9 C 97 % 15 lf 1011,2 hPa 0,0 l/m 0 min 2 min 0 W/m 27,2 km/h (4 Bft) 97,87 %
07.10.2017 21:52 10,4 C 9,4 C 8,9 C 97 % 15 lf 1011,1 hPa 0,0 l/m 0 min 2 min 0 W/m 29,3 km/h (5 Bft) 97,83 %
07.10.2017 21:54 10,3 C 9,4 C 8,9 C 97 % 15 lf 1011,1 hPa 0,2 l/m 0 min 2 min 0 W/m 33,5 km/h (5 Bft) 97,87 %
07.10.2017 21:56 10,3 C 9,4 C 8,9 C 97 % 15 lf 1011,2 hPa 0,0 l/m 0 min 0 min 0 W/m 29,3 km/h (5 Bft) 95,74 %
07.10.2017 21:58 10,3 C 9,4 C 8,9 C 97 % 15 lf 1011,1 hPa 0,0 l/m 0 min 0 min 0 W/m 29,3 km/h (5 Bft) 95,74 %
07.10.2017 22:00 10,3 C 9,4 C 8,9 C 97 % 15 lf 1011,1 hPa 0,0 l/m 0 min 2 min 0 W/m 35,6 km/h (5 Bft) 97,87 %
07.10.2017 22:02 10,3 C 9,4 C 8,9 C 96 % 15 lf 1011,2 hPa 0,0 l/m 0 min 2 min 0 W/m 25,1 km/h (4 Bft) 100,00 %
07.10.2017 22:04 10,3 C 9,4 C 8,9 C 96 % 15 lf 1011,1 hPa 0,0 l/m 0 min 2 min 0 W/m 25,1 km/h (4 Bft) 97,83 %
07.10.2017 22:06 10,3 C 9,4 C 8,9 C 97 % 15 lf 1011,1 hPa 0,0 l/m 0 min 2 min 0 W/m 23,0 km/h (4 Bft) 95,74 %
07.10.2017 22:08 10,3 C 9,4 C 8,9 C 96 % 15 lf 1011,1 hPa 0,0 l/m 0 min 2 min 0 W/m 29,3 km/h (5 Bft) 100,00 %
07.10.2017 22:10 10,3 C 9,4 C 8,9 C 97 % 15 lf 1011,2 hPa 0,0 l/m 0 min 2 min 0 W/m 29,3 km/h (5 Bft) 95,74 %
07.10.2017 22:12 10,3 C 9,4 C 8,9 C 97 % 15 lf 1011,2 hPa 0,2 l/m 0 min 2 min 0 W/m 31,4 km/h (5 Bft) 97,87 %
07.10.2017 22:14 10,3 C 9,4 C 8,9 C 97 % 15 lf 1011,2 hPa 0,0 l/m 0 min 2 min 0 W/m 29,3 km/h (5 Bft) 100,00 %
07.10.2017 22:16 10,3 C 9,4 C 8,9 C 97 % 15 lf 1011,1 hPa 0,0 l/m 0 min 2 min 0 W/m 33,5 km/h (5 Bft) 97,83 %
07.10.2017 22:18 10,3 C 9,4 C 8,9 C 97 % 15 lf 1011,1 hPa 0,0 l/m 0 min 2 min 0 W/m 29,3 km/h (5 Bft) 97,87 %
07.10.2017 22:20 10,3 C 9,4 C 8,9 C 97 % 15 lf 1011,1 hPa 0,0 l/m 0 min 2 min 0 W/m 25,1 km/h (4 Bft) 100,00 %
07.10.2017 22:22 10,3 C 9,4 C 8,9 C 97 % 15 lf 1011,1 hPa 0,2 l/m 0 min 2 min 0 W/m 18,8 km/h (3 Bft) 97,87 %
07.10.2017 22:24 10,3 C 9,4 C 8,9 C 97 % 15 lf 1011,2 hPa 0,0 l/m 0 min 2 min 0 W/m 23,0 km/h (4 Bft) 97,87 %
07.10.2017 22:26 10,3 C 9,4 C 8,9 C 97 % 15 lf 1011,1 hPa 0,0 l/m 0 min 2 min 0 W/m 18,8 km/h (3 Bft) 95,74 %
07.10.2017 22:28 10,3 C 9,4 C 8,9 C 97 % 15 lf 1011,1 hPa 0,0 l/m 0 min 2 min 0 W/m 29,3 km/h (5 Bft) 93,48 %
07.10.2017 22:30 10,3 C 9,4 C 8,9 C 97 % 15 lf 1011,1 hPa 0,2 l/m 0 min 2 min 0 W/m 25,1 km/h (4 Bft) 95,74 %
07.10.2017 22:32 10,3 C 10,0 C 8,9 C 97 % 15 lf 1011,1 hPa 0,0 l/m 0 min 2 min 0 W/m 27,2 km/h (4 Bft) 95,74 %
07.10.2017 22:34 10,3 C 10,0 C 8,9 C 97 % 15 lf 1011,1 hPa 0,0 l/m 0 min 2 min 0 W/m 18,8 km/h (3 Bft) 95,74 %
07.10.2017 22:36 10,3 C 10,0 C 8,9 C 97 % 15 lf 1011,1 hPa 0,2 l/m 0 min 2 min 0 W/m 33,5 km/h (5 Bft) 93,62 %
07.10.2017 22:38 10,3 C 10,0 C 8,9 C 97 % 15 lf 1011,1 hPa 0,0 l/m 0 min 2 min 0 W/m 27,2 km/h (4 Bft) 95,74 %
07.10.2017 22:40 10,3 C 10,0 C 8,9 C 97 % 15 lf 1011,1 hPa 0,0 l/m 0 min 2 min 0 W/m 20,9 km/h (4 Bft) 95,65 %
07.10.2017 22:42 10,3 C 10,0 C 8,9 C 97 % 15 lf 1011,1 hPa 0,0 l/m 0 min 2 min 0 W/m 29,3 km/h (5 Bft) 95,74 %
07.10.2017 22:44 10,3 C 10,0 C 8,9 C 97 % 15 lf 1011,1 hPa 0,2 l/m 0 min 2 min 0 W/m 29,3 km/h (5 Bft) 95,74 %
07.10.2017 22:46 10,3 C 10,0 C 8,9 C 97 % 15 lf 1011,1 hPa 0,0 l/m 0 min 2 min 0 W/m 23,0 km/h (4 Bft) 91,49 %
07.10.2017 22:48 10,3 C 10,0 C 8,9 C 97 % 15 lf 1011,1 hPa 0,0 l/m 0 min 2 min 0 W/m 25,1 km/h (4 Bft) 95,74 %
07.10.2017 22:50 10,3 C 10,0 C 8,9 C 97 % 15 lf 1011,1 hPa 0,0 l/m 0 min 2 min 0 W/m 43,9 km/h (6 Bft) 93,62 %
07.10.2017 22:52 10,3 C 10,0 C 8,9 C 97 % 15 lf 1011,2 hPa 0,0 l/m 0 min 2 min 0 W/m 23,0 km/h (4 Bft) 95,65 %
07.10.2017 22:54 10,4 C 10,0 C 8,9 C 97 % 15 lf 1011,2 hPa 0,0 l/m 0 min 2 min 0 W/m 29,3 km/h (5 Bft) 95,74 %
07.10.2017 22:56 10,4 C 10,0 C 8,9 C 97 % 15 lf 1011,2 hPa 0,0 l/m 0 min 2 min 0 W/m 27,2 km/h (4 Bft) 93,62 %
07.10.2017 22:58 10,4 C 10,0 C 8,9 C 97 % 15 lf 1011,2 hPa 0,0 l/m 0 min 2 min 0 W/m 14,6 km/h (3 Bft) 95,74 %
07.10.2017 23:00 10,4 C 10,0 C 8,9 C 97 % 15 lf 1011,2 hPa 0,0 l/m 0 min 2 min 0 W/m 25,1 km/h (4 Bft) 95,74 %
07.10.2017 23:02 10,4 C 10,0 C 8,9 C 97 % 15 lf 1011,2 hPa 0,0 l/m 0 min 2 min 0 W/m 29,3 km/h (5 Bft) 93,62 %
07.10.2017 23:04 10,4 C 10,0 C 8,9 C 97 % 15 lf 1011,2 hPa 0,0 l/m 0 min 2 min 0 W/m 20,9 km/h (4 Bft) 93,48 %
07.10.2017 23:06 10,4 C 10,0 C 8,9 C 97 % 15 lf 1011,2 hPa 0,2 l/m 0 min 2 min 0 W/m 23,0 km/h (4 Bft) 95,74 %
07.10.2017 23:08 10,4 C 10,0 C 8,9 C 97 % 15 lf 1011,2 hPa 0,0 l/m 0 min 2 min 0 W/m 25,1 km/h (4 Bft) 95,74 %
07.10.2017 23:10 10,4 C 10,0 C 8,9 C 97 % 15 lf 1011,2 hPa 0,0 l/m 0 min 2 min 0 W/m 16,7 km/h (3 Bft) 95,74 %
07.10.2017 23:12 10,4 C 10,0 C 8,9 C 97 % 15 lf 1011,2 hPa 0,0 l/m 0 min 2 min 0 W/m 23,0 km/h (4 Bft) 95,74 %
07.10.2017 23:14 10,4 C 10,0 C 8,9 C 97 % 15 lf 1011,2 hPa 0,0 l/m 0 min 2 min 0 W/m 31,4 km/h (5 Bft) 95,65 %
07.10.2017 23:16 10,4 C 10,0 C 8,9 C 97 % 15 lf 1011,2 hPa 0,0 l/m 0 min 2 min 0 W/m 23,0 km/h (4 Bft) 97,87 %
07.10.2017 23:18 10,4 C 10,0 C 8,9 C 97 % 15 lf 1011,2 hPa 0,2 l/m 0 min 2 min 0 W/m 27,2 km/h (4 Bft) 97,87 %
07.10.2017 23:20 10,4 C 10,0 C 8,9 C 97 % 15 lf 1011,2 hPa 0,0 l/m 0 min 2 min 0 W/m 29,3 km/h (5 Bft) 97,87 %
07.10.2017 23:22 10,4 C 10,0 C 8,9 C 97 % 15 lf 1011,2 hPa 0,0 l/m 0 min 2 min 0 W/m 27,2 km/h (4 Bft) 93,62 %
07.10.2017 23:24 10,4 C 10,0 C 8,9 C 97 % 15 lf 1011,2 hPa 0,0 l/m 0 min 2 min 0 W/m 29,3 km/h (5 Bft) 100,00 %
07.10.2017 23:26 10,4 C 10,0 C 8,9 C 97 % 15 lf 1011,1 hPa 0,0 l/m 0 min 2 min 0 W/m 25,1 km/h (4 Bft) 100,00 %
07.10.2017 23:28 10,4 C 10,0 C 8,9 C 97 % 15 lf 1011,2 hPa 0,2 l/m 0 min 2 min 0 W/m 23,0 km/h (4 Bft) 100,00 %
07.10.2017 23:30 10,4 C 10,0 C 8,9 C 97 % 15 lf 1011,1 hPa 0,0 l/m 0 min 2 min 0 W/m 27,2 km/h (4 Bft) 97,87 %
07.10.2017 23:32 10,4 C 10,0 C 8,9 C 97 % 15 lf 1011,2 hPa 0,0 l/m 0 min 2 min 0 W/m 20,9 km/h (4 Bft) 97,87 %
07.10.2017 23:34 10,4 C 10,0 C 9,4 C 97 % 15 lf 1011,1 hPa 0,0 l/m 0 min 2 min 0 W/m 16,7 km/h (3 Bft) 95,74 %
07.10.2017 23:36 10,4 C 10,0 C 9,4 C 97 % 15 lf 1011,2 hPa 0,0 l/m 0 min 2 min 0 W/m 23,0 km/h (4 Bft) 97,87 %
07.10.2017 23:38 10,4 C 10,0 C 9,4 C 97 % 15 lf 1011,1 hPa 0,2 l/m 0 min 2 min 0 W/m 27,2 km/h (4 Bft) 97,83 %
07.10.2017 23:40 10,5 C 10,0 C 9,4 C 97 % 15 lf 1011,2 hPa 0,0 l/m 0 min 2 min 0 W/m 18,8 km/h (3 Bft) 97,87 %
07.10.2017 23:42 10,5 C 10,0 C 9,4 C 97 % 15 lf 1011,2 hPa 0,0 l/m 0 min 2 min 0 W/m 20,9 km/h (4 Bft) 97,87 %
07.10.2017 23:44 10,5 C 10,0 C 9,4 C 97 % 15 lf 1011,2 hPa 0,2 l/m 0 min 2 min 0 W/m 23,0 km/h (4 Bft) 95,74 %
07.10.2017 23:46 10,5 C 10,0 C 9,4 C 97 % 15 lf 1011,1 hPa 0,0 l/m 0 min 2 min 0 W/m 25,1 km/h (4 Bft) 95,74 %
07.10.2017 23:48 10,5 C 10,0 C 9,4 C 97 % 15 lf 1011,1 hPa 0,0 l/m 0 min 2 min 0 W/m 25,1 km/h (4 Bft) 93,62 %
07.10.2017 23:50 10,5 C 10,0 C 9,4 C 97 % 15 lf 1011,1 hPa 0,2 l/m 0 min 2 min 0 W/m 14,6 km/h (3 Bft) 95,65 %
07.10.2017 23:52 10,5 C 10,0 C 9,4 C 98 % 15 lf 1011,1 hPa 0,0 l/m 0 min 2 min 0 W/m 20,9 km/h (4 Bft) 97,87 %
07.10.2017 23:54 10,5 C 10,0 C 9,4 C 98 % 15 lf 1011,2 hPa 0,0 l/m 0 min 2 min 0 W/m 20,9 km/h (4 Bft) 95,74 %
07.10.2017 23:56 10,5 C 10,0 C 9,4 C 98 % 15 lf 1011,2 hPa 0,0 l/m 0 min 2 min 0 W/m 18,8 km/h (3 Bft) 93,62 %
07.10.2017 23:58 10,6 C 10,0 C 9,4 C 98 % 15 lf 1011,2 hPa 0,0 l/m 0 min 2 min 0 W/m 23,0 km/h (4 Bft) 95,74 %
_ Min-Zeit 06:04 05:48 03:18 11:14 00:00 21:40 - - - - 00:16 09:56
Minimum _ 9,3 C 8,9 C 7,8 C 80 % 0 lf 1011,1 hPa - - - - 6,3 km/h (2 Bft) 84,21 %
_ Max-Zeit 12:04 11:58 11:26 23:52 12:22 00:00 13:40 08:36 12:10 14:40 15:22 02:08
Maximum _ 11,7 C 12,8 C 11,7 C 98 % 15 lf 1023,2 hPa 0,2 l/m 2 min 4 min 227 W/m 50,2 km/h
W-SW (7 Bft)
100,00 %
Durchschnitt _ 10,3 C 10,1 C 9,1 C 92 % 7 lf 1017,1 hPa #5,0 l/m #10 min. #8:32 h 45 W/m 24,4 km/h (4 Bft) 95,51 %
© 2017 W. Hausmann